N2CPW Weather Reports


time (UTC)temp
C
wind
direction
speed
KPH
gust
KPH
rain 1hr
cm
rain 24hr
cm
rain mn
cm
humidity
%
barometer
mb
20260505194929 28 230 12.9 0.0 0.00 0.00 0.00 32 1009.1
20260505194849 28 135 12.9 0.0 0.00 0.00 0.00 32 1009.1
20260505194752 28 317 12.9 0.0 0.00 0.00 0.00 31 1009.1
20260505194649 28 177 14.5 0.0 0.00 0.00 0.00 31 1009.1
20260505194535 28 279 12.9 0.0 0.00 0.00 0.00 31 1009.1
20260505194456 28 218 11.3 0.0 0.00 0.00 0.00 30 1009.1
20260505194337 28 184 12.9 0.0 0.00 0.00 0.00 31 1009.3
20260505194259 28 140 12.9 0.0 0.00 0.00 0.00 31 1009.3
20260505194140 28 240 12.9 0.0 0.00 0.00 0.00 31 1009.3
20260505194102 28 238 11.3 0.0 0.00 0.00 0.00 31 1009.3
20260505193941 28 222 11.3 0.0 0.00 0.00 0.00 31 1009.3
20260505193839 28 182 11.3 0.0 0.00 0.00 0.00 30 1009.3
20260505193728 28 230 9.7 0.0 0.00 0.00 0.00 30 1009.3
20260505193630 28 198 9.7 0.0 0.00 0.00 0.00 33 1009.3
20260505193536 28 187 9.7 0.0 0.00 0.00 0.00 33 1009.3
20260505193432 28 221 11.3 0.0 0.00 0.00 0.00 33 1009.3
20260505193334 28 209 11.3 0.0 0.00 0.00 0.00 34 1009.3
20260505193233 28 227 12.9 0.0 0.00 0.00 0.00 33 1009.3
20260505193154 28 183 11.3 0.0 0.00 0.00 0.00 33 1009.3
20260505193036 28 274 12.9 0.0 0.00 0.00 0.00 34 1009.3
20260505192936 28 191 12.9 0.0 0.00 0.00 0.00 33 1009.3
20260505192833 28 170 12.9 0.0 0.00 0.00 0.00 34 1009.5
20260505192734 28 188 11.3 0.0 0.00 0.00 0.00 34 1009.5
20260505192637 28 178 12.9 0.0 0.00 0.00 0.00 33 1009.5
20260505192538 28 154 12.9 0.0 0.00 0.00 0.00 33 1009.5
20260505192438 28 194 11.3 0.0 0.00 0.00 0.00 34 1009.5
20260505192340 28 197 11.3 0.0 0.00 0.00 0.00 33 1009.5
20260505192238 28 173 11.3 0.0 0.00 0.00 0.00 34 1009.5
20260505192142 28 128 11.3 0.0 0.00 0.00 0.00 34 1009.5
20260505192043 28 171 11.3 0.0 0.00 0.00 0.00 33 1009.5
20260505192000 28 217 12.9 0.0 0.00 0.00 0.00 33 1009.5
20260505191901 28 251 12.9 0.0 0.00 0.00 0.00 33 1009.5
20260505191742 28 149 12.9 0.0 0.00 0.00 0.00 32 1009.5
20260505191643 28 262 12.9 0.0 0.00 0.00 0.00 33 1009.5
20260505191546 28 195 12.9 0.0 0.00 0.00 0.00 33 1009.5
20260505191424 28 178 12.9 0.0 0.00 0.00 0.00 33 1009.5
20260505191326 28 234 12.9 0.0 0.00 0.00 0.00 33 1009.7
20260505191228 28 157 14.5 0.0 0.00 0.00 0.00 34 1009.7
20260505191149 28 233 14.5 0.0 0.00 0.00 0.00 34 1009.7
20260505191031 28 170 14.5 0.0 0.00 0.00 0.00 34 1009.7
20260505190931 28 175 12.9 0.0 0.00 0.00 0.00 34 1009.7
20260505190829 28 165 12.9 0.0 0.00 0.00 0.00 34 1009.7
20260505190750 28 202 14.5 0.0 0.00 0.00 0.00 34 1009.7
20260505190648 28 169 14.5 0.0 0.00 0.00 0.00 35 1009.7
20260505190529 28 219 14.5 0.0 0.00 0.00 0.00 35 1009.7
20260505190428 28 185 14.5 0.0 0.00 0.00 0.00 35 1009.7
20260505190330 28 238 14.5 0.0 0.00 0.00 0.00 35 1009.7
20260505190233 28 172 12.9 0.0 0.00 0.00 0.00 34 1009.7
20260505190133 28 180 12.9 0.0 0.00 0.00 0.00 35 1009.7
20260505190033 28 172 12.9 0.0 0.00 0.00 0.00 35 1009.7
20260505185934 28 264 14.5 0.0 0.00 0.00 0.00 34 1009.6
20260505185850 28 160 12.9 0.0 0.00 0.00 0.00 35 1010.0
20260505185751 28 188 14.5 0.0 0.00 0.00 0.00 35 1010.0
20260505185631 28 184 12.9 0.0 0.00 0.00 0.00 35 1010.0
20260505185537 28 195 12.9 0.0 0.00 0.00 0.00 34 1010.0
20260505185435 28 117 12.9 0.0 0.00 0.00 0.00 34 1010.0
20260505185336 28 163 11.3 0.0 0.00 0.00 0.00 34 1010.0
20260505185259 28 242 11.3 0.0 0.00 0.00 0.00 35 1010.0
20260505185143 28 184 11.3 0.0 0.00 0.00 0.00 34 1010.0
20260505185044 28 201 12.9 0.0 0.00 0.00 0.00 34 1010.0
20260505184944 28 191 11.3 0.0 0.00 0.00 0.00 34 1010.0
20260505184826 28 207 12.9 0.0 0.00 0.00 0.00 34 1010.0
20260505184727 28 193 11.3 0.0 0.00 0.00 0.00 33 1010.0
20260505184645 28 191 11.3 0.0 0.00 0.00 0.00 35 1010.0
20260505184525 28 219 11.3 0.0 0.00 0.00 0.00 34 1010.0
20260505184445 28 299 11.3 0.0 0.00 0.00 0.00 34 1010.0
20260505184407 28 193 12.9 0.0 0.00 0.00 0.00 34 1010.0
20260505184224 28 217 11.3 0.0 0.00 0.00 0.00 34 1010.0
20260505184128 28 171 9.7 0.0 0.00 0.00 0.00 35 1010.0
20260505184031 28 215 9.7 0.0 0.00 0.00 0.00 35 1010.0
20260505183952 28 179 8.0 0.0 0.00 0.00 0.00 35 1010.0
20260505183848 28 149 6.4 0.0 0.00 0.00 0.00 35 1010.0
20260505183729 28 230 6.4 0.0 0.00 0.00 0.00 35 1010.0
20260505183629 28 180 8.0 0.0 0.00 0.00 0.00 35 1010.0
20260505183530 28 182 6.4 0.0 0.00 0.00 0.00 35 1010.0
20260505183449 28 180 6.4 0.0 0.00 0.00 0.00 36 1010.0
20260505183331 28 179 6.4 0.0 0.00 0.00 0.00 36 1010.0
20260505183229 28 172 6.4 0.0 0.00 0.00 0.00 35 1010.0
20260505183130 28 189 6.4 0.0 0.00 0.00 0.00 35 1010.0
20260505183029 28 137 6.4 0.0 0.00 0.00 0.00 36 1010.0
20260505182949 28 205 6.4 0.0 0.00 0.00 0.00 36 1010.0
20260505182825 28 72 8.0 0.0 0.00 0.00 0.00 36 1010.4
20260505182727 28 190 8.0 0.0 0.00 0.00 0.00 36 1010.4
20260505182629 28 170 8.0 0.0 0.00 0.00 0.00 37 1010.4
20260505182530 28 166 8.0 0.0 0.00 0.00 0.00 36 1010.4
20260505182430 28 170 9.7 0.0 0.00 0.00 0.00 36 1010.4
20260505182336 28 220 9.7 0.0 0.00 0.00 0.00 37 1010.4
20260505182257 28 162 11.3 0.0 0.00 0.00 0.00 37 1010.4
20260505182138 28 295 11.3 0.0 0.00 0.00 0.00 37 1010.4
20260505182037 28 184 11.3 0.0 0.00 0.00 0.00 36 1010.4
20260505181941 28 262 11.3 0.0 0.00 0.00 0.00 36 1010.4
20260505181838 28 192 11.3 0.0 0.00 0.00 0.00 36 1010.4
20260505181739 28 204 11.3 0.0 0.00 0.00 0.00 36 1010.4
20260505181638 28 147 9.7 0.0 0.00 0.00 0.00 36 1010.4
20260505181540 28 188 9.7 0.0 0.00 0.00 0.00 36 1010.4
20260505181437 28 146 9.7 0.0 0.00 0.00 0.00 36 1010.4
20260505181341 28 216 9.7 0.0 0.00 0.00 0.00 36 1010.6
20260505181243 28 203 8.0 0.0 0.00 0.00 0.00 36 1010.6
20260505181144 28 216 9.7 0.0 0.00 0.00 0.00 36 1010.6
20260505181043 28 202 9.7 0.0 0.00 0.00 0.00 37 1010.6
20260505180943 28 209 9.7 0.0 0.00 0.00 0.00 36 1010.6
20260505180840 28 201 8.0 0.0 0.00 0.00 0.00 36 1010.6
20260505180725 28 183 9.7 0.0 0.00 0.00 0.00 37 1010.6
20260505180630 27 217 9.7 0.0 0.00 0.00 0.00 37 1010.6
20260505180536 27 153 11.3 0.0 0.00 0.00 0.00 36 1010.6
20260505180436 27 180 11.3 0.0 0.00 0.00 0.00 37 1010.6
20260505180357 27 190 9.7 0.0 0.00 0.00 0.00 37 1010.6
20260505180234 27 170 9.7 0.0 0.00 0.00 0.00 37 1010.6
20260505180139 27 219 11.3 0.0 0.00 0.00 0.00 37 1010.6
20260505180041 27 197 11.3 0.0 0.00 0.00 0.00 37 1010.6
20260505180006 27 222 11.3 0.0 0.00 0.00 0.00 37 1010.6
20260505175843 27 172 11.3 0.0 0.00 0.00 0.00 37 1010.7
20260505175744 27 145 11.3 0.0 0.00 0.00 0.00 38 1010.7
20260505175623 27 184 11.3 0.0 0.00 0.00 0.00 37 1010.7
20260505175529 27 153 11.3 0.0 0.00 0.00 0.00 38 1010.7
20260505175424 27 295 11.3 0.0 0.00 0.00 0.00 37 1010.7
20260505175329 27 259 9.7 0.0 0.00 0.00 0.00 37 1010.7
20260505175228 27 175 11.3 0.0 0.00 0.00 0.00 37 1010.7
20260505175129 27 184 9.7 0.0 0.00 0.00 0.00 37 1010.7
20260505175031 27 150 11.3 0.0 0.00 0.00 0.00 36 1010.7
20260505174934 27 264 9.7 0.0 0.00 0.00 0.00 36 1010.7
20260505174831 27 153 9.7 0.0 0.00 0.00 0.00 37 1010.7
20260505174734 27 184 9.7 0.0 0.00 0.00 0.00 37 1010.7
20260505174659 27 136 9.7 0.0 0.00 0.00 0.00 38 1010.7
20260505174540 27 153 11.3 0.0 0.00 0.00 0.00 38 1010.7
20260505174436 27 147 11.3 0.0 0.00 0.00 0.00 38 1010.7
20260505174338 27 141 11.3 0.0 0.00 0.00 0.00 38 1011.0
20260505174240 27 175 11.3 0.0 0.00 0.00 0.00 38 1011.0
20260505174141 27 190 11.3 0.0 0.00 0.00 0.00 38 1011.0
20260505174040 27 192 9.7 0.0 0.00 0.00 0.00 38 1011.0
20260505173924 27 173 9.7 0.0 0.00 0.00 0.00 39 1011.0
20260505173847 27 224 9.7 0.0 0.00 0.00 0.00 39 1011.0
20260505173730 27 186 9.7 0.0 0.00 0.00 0.00 39 1011.0
20260505173629 27 209 9.7 0.0 0.00 0.00 0.00 39 1011.0
20260505173530 27 201 8.0 0.0 0.00 0.00 0.00 39 1011.0
20260505173446 27 201 8.0 0.0 0.00 0.00 0.00 39 1011.0
20260505173346 27 223 8.0 0.0 0.00 0.00 0.00 39 1011.0
20260505173227 27 182 8.0 0.0 0.00 0.00 0.00 39 1011.0
20260505173128 27 276 8.0 0.0 0.00 0.00 0.00 40 1011.0
20260505173026 27 172 8.0 0.0 0.00 0.00 0.00 39 1011.0
20260505172927 27 180 6.4 0.0 0.00 0.00 0.00 40 1011.0
20260505172828 27 225 6.4 0.0 0.00 0.00 0.00 40 1011.1
20260505172730 27 201 8.0 0.0 0.00 0.00 0.00 40 1011.1
20260505172635 27 175 8.0 0.0 0.00 0.00 0.00 40 1011.1
20260505172557 27 190 8.0 0.0 0.00 0.00 0.00 40 1011.1
20260505172453 27 192 8.0 0.0 0.00 0.00 0.00 40 1011.1
20260505172334 27 195 8.0 0.0 0.00 0.00 0.00 40 1011.1
20260505172259 27 192 8.0 0.0 0.00 0.00 0.00 40 1011.1
20260505172143 27 209 8.0 0.0 0.00 0.00 0.00 40 1011.1
20260505172026 27 200 6.4 0.0 0.00 0.00 0.00 40 1011.1
20260505171929 27 300 8.0 0.0 0.00 0.00 0.00 40 1011.1
20260505171855 27 157 8.0 0.0 0.00 0.00 0.00 40 1011.1
20260505171736 27 182 8.0 0.0 0.00 0.00 0.00 40 1011.1
20260505171656 27 221 9.7 0.0 0.00 0.00 0.00 40 1011.1
20260505171541 27 168 9.7 0.0 0.00 0.00 0.00 41 1011.1
20260505171501 27 236 8.0 0.0 0.00 0.00 0.00 40 1011.1
20260505171341 27 213 9.7 0.0 0.00 0.00 0.00 40 1011.1
20260505171240 27 224 9.7 0.0 0.00 0.00 0.00 41 1011.1
20260505171143 27 251 9.7 0.0 0.00 0.00 0.00 41 1011.1
20260505171044 27 267 9.7 0.0 0.00 0.00 0.00 41 1011.1
20260505170945 27 179 9.7 0.0 0.00 0.00 0.00 40 1011.1
20260505170823 27 199 9.7 0.0 0.00 0.00 0.00 40 1011.1
20260505170748 27 215 8.0 0.0 0.00 0.00 0.00 40 1011.1
20260505170627 27 182 8.0 0.0 0.00 0.00 0.00 41 1011.1
20260505170548 27 195 8.0 0.0 0.00 0.00 0.00 41 1011.1
20260505170428 27 129 8.0 0.0 0.00 0.00 0.00 41 1011.1
20260505170329 27 156 6.4 0.0 0.00 0.00 0.00 41 1011.1
20260505170248 27 176 6.4 0.0 0.00 0.00 0.00 41 1011.1
20260505170129 26 174 6.4 0.0 0.00 0.00 0.00 41 1011.1
20260505170028 26 198 6.4 0.0 0.00 0.00 0.00 41 1011.1
20260505165928 26 246 6.4 0.0 0.00 0.00 0.00 41 1011.0
20260505165827 26 248 4.8 0.0 0.00 0.00 0.00 40 1011.1
20260505165748 26 244 6.4 0.0 0.00 0.00 0.00 40 1011.1
20260505165633 26 199 6.4 0.0 0.00 0.00 0.00 40 1011.1
20260505165535 27 240 4.8 0.0 0.00 0.00 0.00 41 1011.1
20260505165435 26 201 6.4 0.0 0.00 0.00 0.00 41 1011.1
20260505165355 26 192 6.4 0.0 0.00 0.00 0.00 41 1011.1
20260505165231 26 221 6.4 0.0 0.00 0.00 0.00 41 1011.1
20260505165154 26 196 6.4 0.0 0.00 0.00 0.00 41 1011.1
20260505165038 26 209 6.4 0.0 0.00 0.00 0.00 41 1011.1
20260505165000 26 231 6.4 0.0 0.00 0.00 0.00 41 1011.1
20260505164844 26 176 6.4 0.0 0.00 0.00 0.00 41 1011.1
20260505164804 26 197 6.4 0.0 0.00 0.00 0.00 40 1011.1
20260505164642 27 155 6.4 0.0 0.00 0.00 0.00 41 1011.1
20260505164544 26 284 6.4 0.0 0.00 0.00 0.00 41 1011.1
20260505164440 26 103 8.0 0.0 0.00 0.00 0.00 41 1011.1
20260505164342 26 176 8.0 0.0 0.00 0.00 0.00 41 1011.5
20260505164239 26 178 8.0 0.0 0.00 0.00 0.00 41 1011.5
20260505164125 26 134 9.7 0.0 0.00 0.00 0.00 42 1011.5
20260505164046 26 212 9.7 0.0 0.00 0.00 0.00 42 1011.5
20260505164008 26 184 9.7 0.0 0.00 0.00 0.00 42 1011.5
20260505163825 26 194 11.3 0.0 0.00 0.00 0.00 42 1011.5
20260505163728 26 171 11.3 0.0 0.00 0.00 0.00 42 1011.5
20260505163629 26 154 11.3 0.0 0.00 0.00 0.00 42 1011.5
20260505163535 26 162 9.7 0.0 0.00 0.00 0.00 42 1011.5
20260505163433 26 240 9.7 0.0 0.00 0.00 0.00 42 1011.5
20260505163334 26 257 8.0 0.0 0.00 0.00 0.00 42 1011.5
20260505163233 26 100 8.0 0.0 0.00 0.00 0.00 42 1011.5
20260505163135 26 181 8.0 0.0 0.00 0.00 0.00 42 1011.5
20260505163033 26 247 8.0 0.0 0.00 0.00 0.00 42 1011.5
20260505162937 26 198 6.4 0.0 0.00 0.00 0.00 42 1011.5
20260505162842 26 184 4.8 0.0 0.00 0.00 0.00 42 1011.6
20260505162744 26 215 4.8 0.0 0.00 0.00 0.00 42 1011.6
20260505162641 26 211 4.8 0.0 0.00 0.00 0.00 43 1011.6
20260505162543 26 164 4.8 0.0 0.00 0.00 0.00 43 1011.6
20260505162502 26 206 4.8 0.0 0.00 0.00 0.00 44 1011.6
20260505162404 26 190 6.4 0.0 0.00 0.00 0.00 44 1011.6
20260505162221 26 184 8.0 0.0 0.00 0.00 0.00 43 1011.6
20260505162129 26 184 8.0 0.0 0.00 0.00 0.00 43 1011.6
20260505162031 25 170 8.0 0.0 0.00 0.00 0.00 44 1011.6
20260505161951 25 160 9.7 0.0 0.00 0.00 0.00 43 1011.6
20260505161847 25 151 9.7 0.0 0.00 0.00 0.00 43 1011.6
20260505161727 25 206 11.3 0.0 0.00 0.00 0.00 43 1011.6
20260505161628 25 185 11.3 0.0 0.00 0.00 0.00 43 1011.6
20260505161530 25 183 12.9 0.0 0.00 0.00 0.00 44 1011.6
20260505161440 25 191 12.9 0.0 0.00 0.00 0.00 43 1011.6
20260505161405 25 196 12.9 0.0 0.00 0.00 0.00 44 1011.9
20260505161224 25 197 11.3 0.0 0.00 0.00 0.00 44 1011.9
20260505161145 25 3 11.3 0.0 0.00 0.00 0.00 44 1011.9
20260505161043 25 175 11.3 0.0 0.00 0.00 0.00 44 1011.9
20260505160943 25 217 11.3 0.0 0.00 0.00 0.00 44 1011.9
20260505160840 25 233 11.3 0.0 0.00 0.00 0.00 44 1011.9
20260505160725 25 195 9.7 0.0 0.00 0.00 0.00 44 1011.9
20260505160647 25 201 9.7 0.0 0.00 0.00 0.00 44 1011.9
20260505160604 25 277 9.7 0.0 0.00 0.00 0.00 44 1011.9
20260505160443 25 188 8.0 0.0 0.00 0.00 0.00 44 1011.9
20260505160344 25 217 8.0 0.0 0.00 0.00 0.00 44 1011.9
20260505160224 25 207 8.0 0.0 0.00 0.00 0.00 44 1011.9
20260505160129 25 205 8.0 0.0 0.00 0.00 0.00 44 1011.9
20260505153330 25 151 8.0 0.0 0.00 0.00 0.00 46 1012.1
20260505153227 25 186 9.7 0.0 0.00 0.00 0.00 46 1012.1
20260505153132 25 189 9.7 0.0 0.00 0.00 0.00 46 1012.1
20260505153055 25 180 8.0 0.0 0.00 0.00 0.00 46 1012.1
20260505152935 25 201 6.4 0.0 0.00 0.00 0.00 46 1012.1
20260505152832 25 183 6.4 0.0 0.00 0.00 0.00 46 1012.0
20260505152733 25 201 6.4 0.0 0.00 0.00 0.00 46 1012.0
20260505152631 25 190 6.4 0.0 0.00 0.00 0.00 45 1012.0
20260505152536 25 212 6.4 0.0 0.00 0.00 0.00 46 1012.0
20260505152438 25 192 6.4 0.0 0.00 0.00 0.00 46 1012.0
20260505152340 25 210 6.4 0.0 0.00 0.00 0.00 46 1012.0
20260505152238 25 195 6.4 0.0 0.00 0.00 0.00 46 1012.0
20260505152140 25 217 8.0 0.0 0.00 0.00 0.00 47 1012.0
20260505152038 25 132 8.0 0.0 0.00 0.00 0.00 46 1012.0
20260505151939 25 132 9.7 0.0 0.00 0.00 0.00 47 1012.0
20260505151824 25 112 8.0 0.0 0.00 0.00 0.00 47 1012.0
20260505151726 25 170 8.0 0.0 0.00 0.00 0.00 47 1012.0
20260505151628 25 174 8.0 0.0 0.00 0.00 0.00 46 1012.0
20260505151530 25 147 8.0 0.0 0.00 0.00 0.00 46 1012.0
20260505151430 25 118 8.0 0.0 0.00 0.00 0.00 46 1012.0
20260505151351 25 172 6.4 0.0 0.00 0.00 0.00 46 1012.0
20260505151229 25 178 6.4 0.0 0.00 0.00 0.00 46 1012.0
20260505151134 25 169 4.8 0.0 0.00 0.00 0.00 46 1012.0
20260505151053 25 201 4.8 0.0 0.00 0.00 0.00 46 1012.0
20260505150935 25 174 4.8 0.0 0.00 0.00 0.00 45 1012.0
20260505150857 25 176 4.8 0.0 0.00 0.00 0.00 45 1012.0
20260505150758 25 182 4.8 0.0 0.00 0.00 0.00 45 1012.0
20260505150639 25 176 4.8 0.0 0.00 0.00 0.00 45 1012.0
20260505150604 25 142 3.2 0.0 0.00 0.00 0.00 47 1012.0
20260505150439 25 190 4.8 0.0 0.00 0.00 0.00 47 1012.0
20260505150344 24 160 4.8 0.0 0.00 0.00 0.00 47 1012.0
20260505150243 24 174 6.4 0.0 0.00 0.00 0.00 47 1012.0
20260505150124 24 186 6.4 0.0 0.00 0.00 0.00 47 1012.0
20260505140545 22 242 9.7 0.0 0.00 0.00 0.00 52 1012.6
20260505140426 22 211 8.0 0.0 0.00 0.00 0.00 52 1012.6
20260505140351 22 212 6.4 0.0 0.00 0.00 0.00 53 1012.6
20260505140229 22 171 6.4 0.0 0.00 0.00 0.00 53 1012.6
20260505140132 22 197 6.4 0.0 0.00 0.00 0.00 53 1012.6
20260505130233 20 197 6.4 0.0 0.00 0.00 0.00 60 1012.6
20260505130134 20 197 6.4 0.0 0.00 0.00 0.00 61 1012.6
20260505125032 19 216 6.4 0.0 0.00 0.00 0.00 64 1012.5
20260505124954 19 169 6.4 0.0 0.00 0.00 0.00 64 1012.5
20260505124829 19 187 4.8 0.0 0.00 0.00 0.00 64 1012.5
20260505124731 19 161 4.8 0.0 0.00 0.00 0.00 63 1012.5
20260505124629 19 153 4.8 0.0 0.00 0.00 0.00 63 1012.5
20260505124530 19 187 4.8 0.0 0.00 0.00 0.00 63 1012.5
20260505124430 19 110 4.8 0.0 0.00 0.00 0.00 64 1012.5
20260505124335 19 170 4.8 0.0 0.00 0.00 0.00 64 1012.5
20260505124254 19 198 4.8 0.0 0.00 0.00 0.00 64 1012.5
20260505124134 19 215 4.8 0.0 0.00 0.00 0.00 64 1012.5
20260505124032 19 217 4.8 0.0 0.00 0.00 0.00 64 1012.5
20260505123937 19 183 4.8 0.0 0.00 0.00 0.00 64 1012.5
20260505123838 19 155 6.4 0.0 0.00 0.00 0.00 64 1012.5
20260505123740 19 122 4.8 0.0 0.00 0.00 0.00 65 1012.5
20260505123642 19 192 4.8 0.0 0.00 0.00 0.00 65 1012.5
20260505123543 19 208 4.8 0.0 0.00 0.00 0.00 64 1012.5
20260505123424 19 203 3.2 0.0 0.00 0.00 0.00 65 1012.5
20260505123324 19 174 3.2 0.0 0.00 0.00 0.00 65 1012.5
20260505123226 18 186 4.8 0.0 0.00 0.00 0.00 65 1012.5
20260505123127 18 189 4.8 0.0 0.00 0.00 0.00 65 1012.5
20260505123033 18 187 4.8 0.0 0.00 0.00 0.00 65 1012.5
20260505122958 18 190 4.8 0.0 0.00 0.00 0.00 66 1012.5
20260505122835 18 232 3.2 0.0 0.00 0.00 0.00 65 1012.6
20260505122735 18 193 3.2 0.0 0.00 0.00 0.00 66 1012.6
20260505122633 18 205 3.2 0.0 0.00 0.00 0.00 66 1012.6
20260505122536 18 178 3.2 0.0 0.00 0.00 0.00 67 1012.6
20260505122437 18 163 3.2 0.0 0.00 0.00 0.00 67 1012.6
20260505122342 18 172 3.2 0.0 0.00 0.00 0.00 67 1012.6
20260505122305 18 191 3.2 0.0 0.00 0.00 0.00 67 1012.6
20260505122205 18 190 3.2 0.0 0.00 0.00 0.00 67 1012.6
20260505122023 18 140 3.2 0.0 0.00 0.00 0.00 67 1012.6
20260505121947 18 177 3.2 0.0 0.00 0.00 0.00 68 1012.6
20260505121825 18 170 3.2 0.0 0.00 0.00 0.00 68 1012.6
20260505121727 18 201 3.2 0.0 0.00 0.00 0.00 68 1012.6
20260505121628 18 242 3.2 0.0 0.00 0.00 0.00 68 1012.6
20260505121531 18 174 3.2 0.0 0.00 0.00 0.00 68 1012.6
20260505121430 18 184 3.2 0.0 0.00 0.00 0.00 69 1012.6
20260505121331 18 179 1.6 0.0 0.00 0.00 0.00 69 1012.5
20260505121250 18 188 1.6 0.0 0.00 0.00 0.00 69 1012.5
20260505121131 18 223 1.6 0.0 0.00 0.00 0.00 70 1012.5
20260505121034 18 198 1.6 0.0 0.00 0.00 0.00 69 1012.5
20260505120939 18 188 0.0 0.0 0.00 0.00 0.00 69 1012.5
20260505120820 18 174 0.0 0.0 0.00 0.00 0.00 70 1012.5
20260505120746 18 219 0.0 0.0 0.00 0.00 0.00 70 1012.5
20260505120647 17 185 0.0 0.0 0.00 0.00 0.00 70 1012.5
20260505120606 17 185 0.0 0.0 0.00 0.00 0.00 70 1012.5
20260505120504 17 183 0.0 0.0 0.00 0.00 0.00 71 1012.5
20260505120345 17 186 0.0 0.0 0.00 0.00 0.00 71 1012.5
20260505120228 17 186 0.0 0.0 0.00 0.00 0.00 71 1012.5
20260505120131 17 190 0.0 0.0 0.00 0.00 0.00 71 1012.5
20260505120049 17 191 0.0 0.0 0.00 0.00 0.00 71 1012.5
20260505115930 17 190 0.0 0.0 0.00 0.00 0.00 71 1012.5
20260505115829 17 187 0.0 0.0 0.00 0.00 0.00 71 1012.5
20260505115730 17 186 0.0 0.0 0.00 0.00 0.00 71 1012.5
20260505115631 17 278 0.0 0.0 0.00 0.00 0.00 72 1012.5
20260505115537 17 280 0.0 0.0 0.00 0.00 0.00 72 1012.5
20260505115435 17 280 0.0 0.0 0.00 0.00 0.00 72 1012.5
20260505115336 17 283 0.0 0.0 0.00 0.00 0.00 73 1012.5
20260505115234 17 284 0.0 0.0 0.00 0.00 0.00 72 1012.5
20260505115136 17 284 0.0 0.0 0.00 0.00 0.00 73 1012.5
20260505115055 17 285 0.0 0.0 0.00 0.00 0.00 72 1012.5
20260505114953 17 323 0.0 0.0 0.00 0.00 0.00 73 1012.5
20260505114830 17 325 0.0 0.0 0.00 0.00 0.00 73 1012.5
20260505114740 17 326 0.0 0.0 0.00 0.00 0.00 73 1012.5
20260505114638 17 326 0.0 0.0 0.00 0.00 0.00 74 1012.5
20260505114540 16 328 0.0 0.0 0.00 0.00 0.00 74 1012.5
20260505114437 16 328 0.0 0.0 0.00 0.00 0.00 74 1012.5
20260505114339 16 331 0.0 0.0 0.00 0.00 0.00 74 1012.4
20260505114237 16 334 0.0 0.0 0.00 0.00 0.00 75 1012.4
20260505114143 16 336 0.0 0.0 0.00 0.00 0.00 75 1012.4
20260505114041 16 337 0.0 0.0 0.00 0.00 0.00 75 1012.4
20260505113943 16 335 0.0 0.0 0.00 0.00 0.00 75 1012.4
20260505113845 16 334 0.0 0.0 0.00 0.00 0.00 75 1012.4
20260505113806 16 322 0.0 0.0 0.00 0.00 0.00 76 1012.4
20260505113643 16 322 0.0 0.0 0.00 0.00 0.00 76 1012.4
20260505113544 16 322 0.0 0.0 0.00 0.00 0.00 76 1012.4
20260505113425 16 323 0.0 0.0 0.00 0.00 0.00 76 1012.4
20260505113347 16 323 0.0 0.0 0.00 0.00 0.00 76 1012.4
20260505113245 16 323 0.0 0.0 0.00 0.00 0.00 77 1012.4
20260505113145 16 323 0.0 0.0 0.00 0.00 0.00 77 1012.4
20260505113024 15 323 0.0 0.0 0.00 0.00 0.00 77 1012.4
20260505112928 15 323 0.0 0.0 0.00 0.00 0.00 77 1012.4
20260505112850 15 323 0.0 0.0 0.00 0.00 0.00 77 1012.5
20260505112751 15 323 0.0 0.0 0.00 0.00 0.00 77 1012.5
20260505112633 15 323 0.0 0.0 0.00 0.00 0.00 78 1012.5
20260505112534 15 323 0.0 0.0 0.00 0.00 0.00 78 1012.5
20260505112431 15 322 0.0 0.0 0.00 0.00 0.00 78 1012.5
20260505112333 15 322 0.0 0.0 0.00 0.00 0.00 79 1012.5
20260505112231 15 322 0.0 0.0 0.00 0.00 0.00 79 1012.5
20260505112133 15 322 0.0 0.0 0.00 0.00 0.00 79 1012.5
20260505112038 15 322 0.0 0.0 0.00 0.00 0.00 79 1012.5
20260505111939 15 322 0.0 0.0 0.00 0.00 0.00 79 1012.5
20260505111840 15 322 0.0 0.0 0.00 0.00 0.00 79 1012.5
20260505111741 15 322 0.0 0.0 0.00 0.00 0.00 80 1012.5
20260505111643 15 322 0.0 0.0 0.00 0.00 0.00 80 1012.5
20260505111606 15 322 0.0 0.0 0.00 0.00 0.00 80 1012.5
20260505111424 15 321 0.0 0.0 0.00 0.00 0.00 80 1012.5
20260505111331 15 321 0.0 0.0 0.00 0.00 0.00 80 1012.6
20260505111232 15 321 0.0 0.0 0.00 0.00 0.00 80 1012.6
20260505111155 14 321 0.0 0.0 0.00 0.00 0.00 80 1012.6
20260505111052 14 321 0.0 0.0 0.00 0.00 0.00 80 1012.6
20260505110952 14 320 0.0 0.0 0.00 0.00 0.00 80 1012.6
20260505110830 14 319 0.0 0.0 0.00 0.00 0.00 80 1012.6
20260505110751 14 319 0.0 0.0 0.00 0.00 0.00 80 1012.6
20260505110629 14 319 0.0 0.0 0.00 0.00 0.00 79 1012.6
20260505110537 14 319 0.0 0.0 0.00 0.00 0.00 79 1012.6
20260505110433 14 319 0.0 0.0 0.00 0.00 0.00 79 1012.6
20260505110335 14 319 0.0 0.0 0.00 0.00 0.00 79 1012.6
20260505110233 14 319 0.0 0.0 0.00 0.00 0.00 79 1012.6
20260505110154 14 319 0.0 0.0 0.00 0.00 0.00 80 1012.6
20260505102153 13 317 0.0 0.0 0.00 0.00 0.00 82 1012.2
20260505102034 13 316 0.0 0.0 0.00 0.00 0.00 82 1012.2
20260505101934 13 315 0.0 0.0 0.00 0.00 0.00 82 1012.2
20260505101832 13 312 0.0 0.0 0.00 0.00 0.00 82 1012.2
20260505101733 13 309 0.0 0.0 0.00 0.00 0.00 82 1012.2
20260505101634 13 306 0.0 0.0 0.00 0.00 0.00 81 1012.2
20260505101557 13 299 0.0 0.0 0.00 0.00 0.00 81 1012.2
20260505101437 13 191 0.0 0.0 0.00 0.00 0.00 81 1012.2
20260505101339 13 190 0.0 0.0 0.00 0.00 0.00 80 1012.1
20260505101301 13 190 0.0 0.0 0.00 0.00 0.00 80 1012.1
20260505101202 13 190 0.0 0.0 0.00 0.00 0.00 79 1012.1
20260505101039 14 189 0.0 0.0 0.00 0.00 0.00 79 1012.1
20260505100939 14 189 0.0 0.0 0.00 0.00 0.00 79 1012.1
20260505100841 14 189 0.0 0.0 0.00 0.00 0.00 78 1012.1
20260505100726 14 189 0.0 0.0 0.00 0.00 0.00 77 1012.1
20260505100652 14 189 0.0 0.0 0.00 0.00 0.00 77 1012.1
20260505100605 15 189 0.0 0.0 0.00 0.00 0.00 77 1012.1
20260505100425 15 189 0.0 0.0 0.00 0.00 0.00 77 1012.1
20260505100326 15 189 0.0 0.0 0.00 0.00 0.00 77 1012.1
20260505100228 15 189 0.0 0.0 0.00 0.00 0.00 77 1012.1
20260505100130 15 189 0.0 0.0 0.00 0.00 0.00 77 1012.1
20260505100032 15 189 0.0 0.0 0.00 0.00 0.00 77 1012.1
20260505095934 15 189 0.0 0.0 0.00 0.00 0.00 77 1012.1
20260505095832 15 189 0.0 0.0 0.00 0.00 0.00 77 1011.6
20260505095754 15 189 0.0 0.0 0.00 0.00 0.00 77 1011.6
20260505095655 15 189 0.0 0.0 0.00 0.00 0.00 77 1011.6
20260505095555 15 189 0.0 0.0 0.00 0.00 0.00 77 1011.6
20260505095430 15 172 0.0 0.0 0.00 0.00 0.00 77 1011.6
20260505095331 15 172 0.0 0.0 0.00 0.00 0.00 77 1011.6
20260505095233 15 172 0.0 0.0 0.00 0.00 0.00 77 1011.6
20260505095134 15 171 0.0 0.0 0.00 0.00 0.00 77 1011.6
20260505095036 15 171 0.0 0.0 0.00 0.00 0.00 77 1011.6
20260505094936 15 171 0.0 0.0 0.00 0.00 0.00 77 1011.6
20260505094834 15 166 1.6 0.0 0.00 0.00 0.00 77 1011.6
20260505094735 15 165 1.6 0.0 0.00 0.00 0.00 77 1011.6
20260505094637 15 164 1.6 0.0 0.00 0.00 0.00 77 1011.6
20260505094539 15 163 1.6 0.0 0.00 0.00 0.00 77 1011.6
20260505094439 15 162 1.6 0.0 0.00 0.00 0.00 77 1011.6
20260505094341 15 163 1.6 0.0 0.00 0.00 0.00 78 1011.6
20260505094239 15 161 1.6 0.0 0.00 0.00 0.00 77 1011.6
20260505094124 14 161 1.6 0.0 0.00 0.00 0.00 78 1011.6
20260505094046 14 160 1.6 0.0 0.00 0.00 0.00 78 1011.6
20260505093928 14 159 0.0 0.0 0.00 0.00 0.00 78 1011.6
20260505093828 14 159 0.0 0.0 0.00 0.00 0.00 78 1011.6
20260505093750 14 163 0.0 0.0 0.00 0.00 0.00 78 1011.6
20260505093627 14 162 0.0 0.0 0.00 0.00 0.00 78 1011.6
20260505093529 14 161 0.0 0.0 0.00 0.00 0.00 78 1011.6
20260505093430 14 161 0.0 0.0 0.00 0.00 0.00 78 1011.6
20260505093332 14 161 0.0 0.0 0.00 0.00 0.00 78 1011.6
20260505093234 14 161 0.0 0.0 0.00 0.00 0.00 78 1011.6
20260505093136 14 160 0.0 0.0 0.00 0.00 0.00 78 1011.6
20260505093035 14 161 0.0 0.0 0.00 0.00 0.00 78 1011.6
20260505092934 14 161 0.0 0.0 0.00 0.00 0.00 78 1011.6
20260505092834 14 161 0.0 0.0 0.00 0.00 0.00 78 1011.6
20260505092735 14 161 0.0 0.0 0.00 0.00 0.00 78 1011.6
20260505092657 14 161 0.0 0.0 0.00 0.00 0.00 77 1011.6
20260505092602 14 161 0.0 0.0 0.00 0.00 0.00 77 1011.6
20260505092437 14 161 0.0 0.0 0.00 0.00 0.00 77 1011.6
20260505092339 14 161 0.0 0.0 0.00 0.00 0.00 77 1011.6
20260505092238 14 161 0.0 0.0 0.00 0.00 0.00 77 1011.6
20260505092142 15 161 0.0 0.0 0.00 0.00 0.00 77 1011.6
20260505092042 15 161 0.0 0.0 0.00 0.00 0.00 77 1011.6
20260505091943 15 161 0.0 0.0 0.00 0.00 0.00 77 1011.6
20260505091824 15 161 0.0 0.0 0.00 0.00 0.00 77 1011.6
20260505091745 15 161 0.0 0.0 0.00 0.00 0.00 77 1011.6
20260505091624 15 163 0.0 0.0 0.00 0.00 0.00 77 1011.6
20260505091546 15 163 0.0 0.0 0.00 0.00 0.00 77 1011.6
20260505091423 15 163 0.0 0.0 0.00 0.00 0.00 77 1011.6
20260505091328 15 163 0.0 0.0 0.00 0.00 0.00 77 1011.6
20260505091234 15 163 0.0 0.0 0.00 0.00 0.00 77 1011.6
20260505091157 15 163 0.0 0.0 0.00 0.00 0.00 77 1011.6
20260505091054 15 163 0.0 0.0 0.00 0.00 0.00 77 1011.6
20260505090933 15 163 0.0 0.0 0.00 0.00 0.00 77 1011.6
20260505090852 15 165 0.0 0.0 0.00 0.00 0.00 77 1011.6
20260505090756 15 165 0.0 0.0 0.00 0.00 0.00 77 1011.6
20260505090632 15 165 0.0 0.0 0.00 0.00 0.00 77 1011.6
20260505090537 15 165 0.0 0.0 0.00 0.00 0.00 77 1011.6
20260505090458 15 165 0.0 0.0 0.00 0.00 0.00 77 1011.6
20260505090343 15 165 0.0 0.0 0.00 0.00 0.00 77 1011.6
20260505090224 15 165 0.0 0.0 0.00 0.00 0.00 77 1011.6
20260505090146 15 164 0.0 0.0 0.00 0.00 0.00 77 1011.6
20260505090045 15 163 0.0 0.0 0.00 0.00 0.00 77 1011.6
20260505085925 15 163 0.0 0.0 0.00 0.00 0.00 77 1011.6
20260505085827 15 163 0.0 0.0 0.00 0.00 0.00 77 1011.5
20260505085732 15 164 0.0 0.0 0.00 0.00 0.00 77 1011.5
20260505085631 15 164 0.0 0.0 0.00 0.00 0.00 77 1011.5
20260505085533 15 164 0.0 0.0 0.00 0.00 0.00 77 1011.5
20260505085429 15 164 0.0 0.0 0.00 0.00 0.00 77 1011.5
20260505085332 15 162 0.0 0.0 0.00 0.00 0.00 77 1011.5
20260505085230 15 162 0.0 0.0 0.00 0.00 0.00 77 1011.5
20260505085136 15 162 0.0 0.0 0.00 0.00 0.00 77 1011.5
20260505085058 15 162 0.0 0.0 0.00 0.00 0.00 77 1011.5
20260505084940 15 161 0.0 0.0 0.00 0.00 0.00 77 1011.5
20260505084839 15 161 0.0 0.0 0.00 0.00 0.00 77 1011.5
20260505084740 15 161 0.0 0.0 0.00 0.00 0.00 77 1011.5
20260505084621 15 160 0.0 0.0 0.00 0.00 0.00 77 1011.5
20260505084545 15 159 0.0 0.0 0.00 0.00 0.00 77 1011.5
20260505084427 15 159 0.0 0.0 0.00 0.00 0.00 77 1011.5
20260505084330 14 157 0.0 0.0 0.00 0.00 0.00 77 1011.6
20260505084227 14 155 0.0 0.0 0.00 0.00 0.00 77 1011.6
20260505084149 14 155 0.0 0.0 0.00 0.00 0.00 77 1011.6
20260505084028 14 155 0.0 0.0 0.00 0.00 0.00 77 1011.6
20260505083928 14 155 0.0 0.0 0.00 0.00 0.00 77 1011.6
20260505083827 14 154 0.0 0.0 0.00 0.00 0.00 77 1011.6
20260505083732 14 154 0.0 0.0 0.00 0.00 0.00 77 1011.6
20260505083630 14 171 0.0 0.0 0.00 0.00 0.00 77 1011.6
20260505083536 14 170 0.0 0.0 0.00 0.00 0.00 77 1011.6
20260505083458 14 170 0.0 0.0 0.00 0.00 0.00 77 1011.6
20260505083338 14 170 0.0 0.0 0.00 0.00 0.00 77 1011.6
20260505083240 14 170 0.0 0.0 0.00 0.00 0.00 77 1011.6
20260505083202 14 170 0.0 0.0 0.00 0.00 0.00 77 1011.6
20260505083043 14 170 0.0 0.0 0.00 0.00 0.00 77 1011.6
20260505082924 14 179 0.0 0.0 0.00 0.00 0.00 77 1011.6
20260505082825 14 178 0.0 0.0 0.00 0.00 0.00 77 1011.6
20260505082727 14 184 0.0 0.0 0.00 0.00 0.00 77 1011.6
20260505082628 14 184 0.0 0.0 0.00 0.00 0.00 77 1011.6
20260505082534 14 190 0.0 0.0 0.00 0.00 0.00 77 1011.6
20260505082450 14 181 0.0 0.0 0.00 0.00 0.00 77 1011.6
20260505082334 14 179 0.0 0.0 0.00 0.00 0.00 77 1011.6
20260505082254 14 172 0.0 0.0 0.00 0.00 0.00 77 1011.6
20260505082136 14 170 0.0 0.0 0.00 0.00 0.00 77 1011.6
20260505082042 14 170 0.0 0.0 0.00 0.00 0.00 77 1011.6
20260505082003 14 162 0.0 0.0 0.00 0.00 0.00 77 1011.6
20260505081840 14 161 0.0 0.0 0.00 0.00 0.00 77 1011.6
20260505081741 14 161 0.0 0.0 0.00 0.00 0.00 77 1011.6
20260505081643 14 156 0.0 0.0 0.00 0.00 0.00 77 1011.6
20260505081525 14 165 0.0 0.0 0.00 0.00 0.00 77 1011.6
20260505081426 14 160 0.0 0.0 0.00 0.00 0.00 77 1011.6
20260505081327 14 170 0.0 0.0 0.00 0.00 0.00 77 1011.6
20260505081225 14 168 0.0 0.0 0.00 0.00 0.00 77 1011.6
20260505081147 14 168 0.0 0.0 0.00 0.00 0.00 77 1011.6
20260505081044 14 168 0.0 0.0 0.00 0.00 0.00 77 1011.6
20260505080929 14 167 0.0 0.0 0.00 0.00 0.00 77 1011.6
20260505080831 14 171 0.0 0.0 0.00 0.00 0.00 77 1011.6
20260505080733 14 176 0.0 0.0 0.00 0.00 0.00 77 1011.6
20260505080634 14 176 0.0 0.0 0.00 0.00 0.00 77 1011.6
20260505080537 14 176 0.0 0.0 0.00 0.00 0.00 77 1011.6
20260505080434 14 163 0.0 0.0 0.00 0.00 0.00 77 1011.6
20260505080339 14 171 0.0 0.0 0.00 0.00 0.00 77 1011.6
20260505080237 14 172 0.0 0.0 0.00 0.00 0.00 77 1011.6
20260505080141 14 172 0.0 0.0 0.00 0.00 0.00 77 1011.6
20260505080104 14 173 0.0 0.0 0.00 0.00 0.00 77 1011.6
20260505080003 14 173 0.0 0.0 0.00 0.00 0.00 77 1011.6
20260505075840 14 173 0.0 0.0 0.00 0.00 0.00 77 1011.4
20260505075742 14 173 0.0 0.0 0.00 0.00 0.00 77 1011.4
20260505075624 14 173 0.0 0.0 0.00 0.00 0.00 77 1011.4
20260505075545 14 173 0.0 0.0 0.00 0.00 0.00 77 1011.4
20260505075443 14 173 0.0 0.0 0.00 0.00 0.00 77 1011.4
20260505075344 14 173 0.0 0.0 0.00 0.00 0.00 77 1011.4
20260505075221 14 173 0.0 0.0 0.00 0.00 0.00 77 1011.4
20260505075147 14 173 0.0 0.0 0.00 0.00 0.00 77 1011.4
20260505075026 14 173 0.0 0.0 0.00 0.00 0.00 77 1011.4
20260505074953 14 173 0.0 0.0 0.00 0.00 0.00 76 1011.4
20260505074854 14 173 0.0 0.0 0.00 0.00 0.00 76 1011.4
20260505074758 14 173 0.0 0.0 0.00 0.00 0.00 76 1011.4
20260505074655 14 173 0.0 0.0 0.00 0.00 0.00 76 1011.4
20260505074536 14 173 0.0 0.0 0.00 0.00 0.00 76 1011.4
20260505074432 14 173 0.0 0.0 0.00 0.00 0.00 76 1011.4
20260505074335 14 173 0.0 0.0 0.00 0.00 0.00 76 1011.4
20260505074232 14 173 0.0 0.0 0.00 0.00 0.00 76 1011.4
20260505074138 14 173 0.0 0.0 0.00 0.00 0.00 76 1011.4
20260505074059 14 173 0.0 0.0 0.00 0.00 0.00 76 1011.4
20260505073939 14 173 0.0 0.0 0.00 0.00 0.00 76 1011.4
20260505073836 14 173 0.0 0.0 0.00 0.00 0.00 76 1011.4
20260505073738 14 173 0.0 0.0 0.00 0.00 0.00 76 1011.4
20260505073636 14 173 0.0 0.0 0.00 0.00 0.00 76 1011.4
20260505073538 14 173 0.0 0.0 0.00 0.00 0.00 76 1011.4
20260505073438 14 173 0.0 0.0 0.00 0.00 0.00 76 1011.4
20260505073340 14 178 0.0 0.0 0.00 0.00 0.00 76 1011.4
20260505073239 14 178 0.0 0.0 0.00 0.00 0.00 76 1011.4
20260505073140 14 178 0.0 0.0 0.00 0.00 0.00 76 1011.4
20260505073039 14 178 0.0 0.0 0.00 0.00 0.00 76 1011.4
20260505072940 14 178 0.0 0.0 0.00 0.00 0.00 76 1011.4
20260505072838 14 177 0.0 0.0 0.00 0.00 0.00 75 1011.2
20260505072724 14 177 0.0 0.0 0.00 0.00 0.00 75 1011.2
20260505072645 14 177 0.0 0.0 0.00 0.00 0.00 75 1011.2
20260505072606 14 177 0.0 0.0 0.00 0.00 0.00 76 1011.2
20260505072443 14 177 0.0 0.0 0.00 0.00 0.00 75 1011.2
20260505072345 14 177 0.0 0.0 0.00 0.00 0.00 75 1011.2
20260505072243 14 177 0.0 0.0 0.00 0.00 0.00 75 1011.2
20260505072129 14 177 0.0 0.0 0.00 0.00 0.00 75 1011.2
20260505072027 14 177 0.0 0.0 0.00 0.00 0.00 75 1011.2
20260505071927 14 177 0.0 0.0 0.00 0.00 0.00 75 1011.2
20260505071827 14 177 0.0 0.0 0.00 0.00 0.00 75 1011.2
20260505071729 15 177 0.0 0.0 0.00 0.00 0.00 75 1011.2
20260505071628 15 177 0.0 0.0 0.00 0.00 0.00 75 1011.2
20260505071530 15 177 0.0 0.0 0.00 0.00 0.00 75 1011.2
20260505071431 15 177 0.0 0.0 0.00 0.00 0.00 75 1011.2
20260505071332 15 177 0.0 0.0 0.00 0.00 0.00 75 1011.1
20260505071235 15 177 0.0 0.0 0.00 0.00 0.00 75 1011.1
20260505071158 15 177 0.0 0.0 0.00 0.00 0.00 75 1011.1
20260505071055 15 177 0.0 0.0 0.00 0.00 0.00 75 1011.1
20260505070934 15 177 0.0 0.0 0.00 0.00 0.00 74 1011.1
20260505070833 15 177 0.0 0.0 0.00 0.00 0.00 74 1011.1
20260505070740 15 177 0.0 0.0 0.00 0.00 0.00 74 1011.1
20260505070641 15 177 0.0 0.0 0.00 0.00 0.00 74 1011.1
20260505070605 15 177 0.0 0.0 0.00 0.00 0.00 74 1011.1
20260505070441 15 177 0.0 0.0 0.00 0.00 0.00 74 1011.1
20260505070341 15 177 0.0 0.0 0.00 0.00 0.00 74 1011.1
20260505070303 15 177 0.0 0.0 0.00 0.00 0.00 74 1011.1
20260505070144 15 177 0.0 0.0 0.00 0.00 0.00 74 1011.1
20260505070026 15 172 0.0 0.0 0.00 0.00 0.00 74 1011.1
20260505065927 15 172 0.0 0.0 0.00 0.00 0.00 74 1011.1
20260505065849 15 172 0.0 0.0 0.00 0.00 0.00 74 1011.1
20260505065729 15 173 0.0 0.0 0.00 0.00 0.00 74 1011.1
20260505065626 15 172 0.0 0.0 0.00 0.00 0.00 74 1011.1
20260505065528 15 172 0.0 0.0 0.00 0.00 0.00 74 1011.1
20260505065425 15 173 0.0 0.0 0.00 0.00 0.00 74 1011.1
20260505065331 15 162 0.0 0.0 0.00 0.00 0.00 74 1011.1
20260505065229 15 162 0.0 0.0 0.00 0.00 0.00 74 1011.1
20260505065131 15 162 0.0 0.0 0.00 0.00 0.00 74 1011.1
20260505065030 15 161 0.0 0.0 0.00 0.00 0.00 74 1011.1
20260505064930 15 161 0.0 0.0 0.00 0.00 0.00 74 1011.1
20260505064848 15 161 0.0 0.0 0.00 0.00 0.00 74 1011.1
20260505064749 15 161 0.0 0.0 0.00 0.00 0.00 74 1011.1
20260505064626 15 161 0.0 0.0 0.00 0.00 0.00 73 1011.1
20260505064532 15 161 0.0 0.0 0.00 0.00 0.00 73 1011.1
20260505064428 15 161 0.0 0.0 0.00 0.00 0.00 73 1011.1
20260505064350 15 161 0.0 0.0 0.00 0.00 0.00 73 1011.1
20260505064229 15 161 0.0 0.0 0.00 0.00 0.00 73 1011.1
20260505064131 15 161 0.0 0.0 0.00 0.00 0.00 73 1011.1
20260505064053 15 161 0.0 0.0 0.00 0.00 0.00 73 1011.1
20260505063953 15 161 0.0 0.0 0.00 0.00 0.00 73 1011.1
20260505063830 15 161 0.0 0.0 0.00 0.00 0.00 73 1011.1
20260505063737 15 161 0.0 0.0 0.00 0.00 0.00 73 1011.1
20260505063635 15 161 0.0 0.0 0.00 0.00 0.00 73 1011.1
20260505063536 15 161 0.0 0.0 0.00 0.00 0.00 73 1011.1
20260505063457 15 161 0.0 0.0 0.00 0.00 0.00 73 1011.1
20260505063338 15 161 0.0 0.0 0.00 0.00 0.00 73 1011.1
20260505063237 15 161 0.0 0.0 0.00 0.00 0.00 73 1011.1
20260505063138 15 161 0.0 0.0 0.00 0.00 0.00 72 1011.1
20260505063043 15 161 0.0 0.0 0.00 0.00 0.00 72 1011.1
20260505063001 15 161 0.0 0.0 0.00 0.00 0.00 72 1011.1
20260505062902 15 161 0.0 0.0 0.00 0.00 0.00 73 1011.0
20260505062743 15 161 0.0 0.0 0.00 0.00 0.00 73 1011.0
20260505062641 15 157 0.0 0.0 0.00 0.00 0.00 72 1011.0
20260505062543 15 157 0.0 0.0 0.00 0.00 0.00 72 1011.0
20260505062441 15 157 0.0 0.0 0.00 0.00 0.00 73 1011.0
20260505062327 15 157 0.0 0.0 0.00 0.00 0.00 72 1011.0
20260505062228 15 157 0.0 0.0 0.00 0.00 0.00 72 1011.0
20260505062129 15 157 0.0 0.0 0.00 0.00 0.00 72 1011.0
20260505062028 15 157 0.0 0.0 0.00 0.00 0.00 72 1011.0
20260505061928 15 157 0.0 0.0 0.00 0.00 0.00 72 1011.0
20260505061826 15 157 1.6 0.0 0.00 0.00 0.00 72 1011.0
20260505061728 15 157 1.6 0.0 0.00 0.00 0.00 72 1011.0
20260505061629 15 157 1.6 0.0 0.00 0.00 0.00 72 1011.0
20260505061532 15 155 0.0 0.0 0.00 0.00 0.00 72 1011.0
20260505061430 15 168 0.0 0.0 0.00 0.00 0.00 72 1011.0
20260505061331 15 168 0.0 0.0 0.00 0.00 0.00 71 1011.1
20260505061230 15 168 0.0 0.0 0.00 0.00 0.00 71 1011.1
20260505061131 15 168 0.0 0.0 0.00 0.00 0.00 71 1011.1
20260505061035 15 169 0.0 0.0 0.00 0.00 0.00 71 1011.1
20260505060934 15 164 0.0 0.0 0.00 0.00 0.00 71 1011.1
20260505060837 15 163 0.0 0.0 0.00 0.00 0.00 71 1011.1
20260505060742 15 163 0.0 0.0 0.00 0.00 0.00 71 1011.1
20260505060624 15 163 0.0 0.0 0.00 0.00 0.00 71 1011.1
20260505060547 15 163 0.0 0.0 0.00 0.00 0.00 71 1011.1
20260505060428 15 163 0.0 0.0 0.00 0.00 0.00 71 1011.1
20260505060330 15 163 0.0 0.0 0.00 0.00 0.00 71 1011.1
20260505060229 15 163 0.0 0.0 0.00 0.00 0.00 71 1011.1
20260505060153 15 163 0.0 0.0 0.00 0.00 0.00 71 1011.1
20260505060031 15 163 0.0 0.0 0.00 0.00 0.00 71 1011.1
20260505055932 15 163 0.0 0.0 0.00 0.00 0.00 71 1011.1
20260505055830 15 163 0.0 0.0 0.00 0.00 0.00 71 1011.2
20260505055739 15 163 0.0 0.0 0.00 0.00 0.00 71 1011.2
20260505055636 15 159 0.0 0.0 0.00 0.00 0.00 71 1011.2
20260505055541 15 150 0.0 0.0 0.00 0.00 0.00 70 1011.2
20260505055441 15 150 0.0 0.0 0.00 0.00 0.00 70 1011.2
20260505055341 15 150 0.0 0.0 0.00 0.00 0.00 70 1011.2
20260505055304 15 150 0.0 0.0 0.00 0.00 0.00 70 1011.2
20260505055125 15 150 0.0 0.0 0.00 0.00 0.00 70 1011.2
20260505055031 15 150 0.0 0.0 0.00 0.00 0.00 70 1011.2
20260505054931 15 150 0.0 0.0 0.00 0.00 0.00 70 1011.2
20260505054830 15 150 0.0 0.0 0.00 0.00 0.00 70 1011.2
20260505054732 15 155 0.0 0.0 0.00 0.00 0.00 70 1011.2
20260505054629 15 160 0.0 0.0 0.00 0.00 0.00 70 1011.2
20260505054532 15 160 0.0 0.0 0.00 0.00 0.00 70 1011.2
20260505054428 15 160 0.0 0.0 0.00 0.00 0.00 70 1011.2
20260505054335 15 160 0.0 0.0 0.00 0.00 0.00 70 1011.3
20260505054256 15 160 0.0 0.0 0.00 0.00 0.00 70 1011.3
20260505054157 15 160 0.0 0.0 0.00 0.00 0.00 70 1011.3
20260505054034 15 160 0.0 0.0 0.00 0.00 0.00 70 1011.3
20260505053955 15 159 0.0 0.0 0.00 0.00 0.00 69 1011.3
20260505053831 15 160 0.0 0.0 0.00 0.00 0.00 69 1011.3
20260505053732 15 159 0.0 0.0 0.00 0.00 0.00 69 1011.3
20260505053658 15 159 0.0 0.0 0.00 0.00 0.00 69 1011.3
20260505053600 15 159 0.0 0.0 0.00 0.00 0.00 69 1011.3
20260505053439 15 159 0.0 0.0 0.00 0.00 0.00 69 1011.3
20260505053340 15 157 0.0 0.0 0.00 0.00 0.00 69 1011.3
20260505053242 15 157 0.0 0.0 0.00 0.00 0.00 69 1011.3
20260505053143 15 157 0.0 0.0 0.00 0.00 0.00 69 1011.3
20260505053042 15 157 0.0 0.0 0.00 0.00 0.00 69 1011.3
20260505052942 16 157 0.0 0.0 0.00 0.00 0.00 69 1011.3
20260505052827 15 157 0.0 0.0 0.00 0.00 0.00 69 1011.3
20260505052730 15 157 0.0 0.0 0.00 0.00 0.00 69 1011.3
20260505052629 16 157 0.0 0.0 0.00 0.00 0.00 69 1011.3
20260505052534 16 157 0.0 0.0 0.00 0.00 0.00 69 1011.3
20260505052430 15 157 0.0 0.0 0.00 0.00 0.00 69 1011.3
20260505052331 15 157 0.0 0.0 0.00 0.00 0.00 69 1011.3
20260505052250 16 157 0.0 0.0 0.00 0.00 0.00 69 1011.3
20260505052134 16 157 0.0 0.0 0.00 0.00 0.00 69 1011.3
20260505052036 16 157 0.0 0.0 0.00 0.00 0.00 69 1011.3
20260505051938 16 157 0.0 0.0 0.00 0.00 0.00 69 1011.3
20260505051835 16 157 0.0 0.0 0.00 0.00 0.00 69 1011.3
20260505051736 16 157 0.0 0.0 0.00 0.00 0.00 69 1011.3
20260505051635 16 157 0.0 0.0 0.00 0.00 0.00 69 1011.3
20260505051545 16 157 0.0 0.0 0.00 0.00 0.00 69 1011.3
20260505051442 16 157 0.0 0.0 0.00 0.00 0.00 69 1011.3
20260505051343 16 157 0.0 0.0 0.00 0.00 0.00 69 1011.5
20260505051222 16 157 0.0 0.0 0.00 0.00 0.00 68 1011.5
20260505051127 16 158 0.0 0.0 0.00 0.00 0.00 69 1011.5
20260505051029 16 158 0.0 0.0 0.00 0.00 0.00 68 1011.5
20260505050933 16 158 0.0 0.0 0.00 0.00 0.00 69 1011.5
20260505050833 16 163 0.0 0.0 0.00 0.00 0.00 69 1011.5
20260505050755 16 163 0.0 0.0 0.00 0.00 0.00 69 1011.5
20260505050652 16 150 0.0 0.0 0.00 0.00 0.00 68 1011.5
20260505050536 16 150 0.0 0.0 0.00 0.00 0.00 68 1011.5
20260505050432 16 150 0.0 0.0 0.00 0.00 0.00 68 1011.5
20260505050353 16 150 0.0 0.0 0.00 0.00 0.00 68 1011.5
20260505050233 16 150 0.0 0.0 0.00 0.00 0.00 68 1011.5
20260505050138 16 150 0.0 0.0 0.00 0.00 0.00 68 1011.5
20260505041727 15 162 0.0 0.0 0.00 0.00 0.00 68 1011.6
20260505041626 15 140 0.0 0.0 0.00 0.00 0.00 68 1011.6
20260505041528 15 140 0.0 0.0 0.00 0.00 0.00 68 1011.6
20260505041425 15 140 0.0 0.0 0.00 0.00 0.00 68 1011.6
20260505041346 15 139 0.0 0.0 0.00 0.00 0.00 68 1011.6
20260505041224 15 138 0.0 0.0 0.00 0.00 0.00 67 1011.6
20260505041146 15 138 0.0 0.0 0.00 0.00 0.00 67 1011.6
20260505041028 15 138 0.0 0.0 0.00 0.00 0.00 67 1011.6
20260505040928 15 138 0.0 0.0 0.00 0.00 0.00 67 1011.6
20260505040826 15 138 0.0 0.0 0.00 0.00 0.00 67 1011.6
20260505040749 16 151 0.0 0.0 0.00 0.00 0.00 67 1011.6
20260505040602 16 151 0.0 0.0 0.00 0.00 0.00 67 1011.6
20260505040421 16 153 0.0 0.0 0.00 0.00 0.00 67 1011.6
20260505040351 16 153 0.0 0.0 0.00 0.00 0.00 67 1011.6
20260505040228 16 152 0.0 0.0 0.00 0.00 0.00 67 1011.6
20260505040129 16 152 0.0 0.0 0.00 0.00 0.00 66 1011.6
20260505040027 16 152 0.0 0.0 0.00 0.00 0.00 66 1011.6
20260505035928 16 152 0.0 0.0 0.00 0.00 0.00 66 1011.6
20260505035846 16 152 0.0 0.0 0.00 0.00 0.00 66 1011.5
20260505035727 16 152 0.0 0.0 0.00 0.00 0.00 66 1011.5
20260505035630 16 153 0.0 0.0 0.00 0.00 0.00 66 1011.5
20260505035532 16 153 0.0 0.0 0.00 0.00 0.00 66 1011.5
20260505035429 16 149 0.0 0.0 0.00 0.00 0.00 66 1011.5
20260505035330 16 149 0.0 0.0 0.00 0.00 0.00 66 1011.5
20260505035251 16 149 0.0 0.0 0.00 0.00 0.00 66 1011.5
20260505035131 16 149 0.0 0.0 0.00 0.00 0.00 66 1011.5
20260505035034 16 149 0.0 0.0 0.00 0.00 0.00 66 1011.5
20260505034959 16 149 0.0 0.0 0.00 0.00 0.00 66 1011.5
20260505034840 16 149 0.0 0.0 0.00 0.00 0.00 66 1011.5
20260505034743 16 149 0.0 0.0 0.00 0.00 0.00 66 1011.5
20260505034624 16 149 0.0 0.0 0.00 0.00 0.00 66 1011.5
20260505034546 16 149 0.0 0.0 0.00 0.00 0.00 66 1011.5
20260505034423 16 149 0.0 0.0 0.00 0.00 0.00 66 1011.5
20260505034349 16 149 0.0 0.0 0.00 0.00 0.00 65 1011.6
20260505034246 16 149 0.0 0.0 0.00 0.00 0.00 65 1011.6
20260505034135 16 149 0.0 0.0 0.00 0.00 0.00 65 1011.6
20260505034037 16 149 0.0 0.0 0.00 0.00 0.00 65 1011.6
20260505033937 16 149 0.0 0.0 0.00 0.00 0.00 65 1011.6
20260505033859 16 149 0.0 0.0 0.00 0.00 0.00 65 1011.6
20260505033739 16 149 0.0 0.0 0.00 0.00 0.00 65 1011.6
20260505033701 16 149 0.0 0.0 0.00 0.00 0.00 65 1011.6
20260505033542 16 149 0.0 0.0 0.00 0.00 0.00 65 1011.6
20260505033426 16 136 0.0 0.0 0.00 0.00 0.00 65 1011.6
20260505033326 16 136 0.0 0.0 0.00 0.00 0.00 65 1011.6
20260505033229 16 142 0.0 0.0 0.00 0.00 0.00 64 1011.6
20260505033153 16 142 0.0 0.0 0.00 0.00 0.00 64 1011.6
20260505033051 16 142 0.0 0.0 0.00 0.00 0.00 64 1011.6
20260505032929 16 142 0.0 0.0 0.00 0.00 0.00 64 1011.6
20260505032831 16 143 0.0 0.0 0.00 0.00 0.00 64 1011.6
20260505032738 16 143 0.0 0.0 0.00 0.00 0.00 64 1011.6
20260505032635 16 143 0.0 0.0 0.00 0.00 0.00 64 1011.6
20260505032537 16 147 0.0 0.0 0.00 0.00 0.00 64 1011.6
20260505032436 16 147 0.0 0.0 0.00 0.00 0.00 64 1011.6
20260505032337 16 147 0.0 0.0 0.00 0.00 0.00 64 1011.6
20260505032254 16 146 0.0 0.0 0.00 0.00 0.00 64 1011.6
20260505032135 16 144 0.0 0.0 0.00 0.00 0.00 64 1011.6
20260505032034 16 144 0.0 0.0 0.00 0.00 0.00 64 1011.6
20260505031938 16 144 0.0 0.0 0.00 0.00 0.00 64 1011.6
20260505031842 16 143 0.0 0.0 0.00 0.00 0.00 63 1011.6
20260505031724 16 143 0.0 0.0 0.00 0.00 0.00 63 1011.6
20260505031645 16 143 0.0 0.0 0.00 0.00 0.00 63 1011.6
20260505031546 16 143 0.0 0.0 0.00 0.00 0.00 63 1011.6
20260505031426 16 143 0.0 0.0 0.00 0.00 0.00 63 1011.6
20260505031330 16 143 0.0 0.0 0.00 0.00 0.00 63 1011.6
20260505031251 16 143 0.0 0.0 0.00 0.00 0.00 63 1011.6
20260505031131 16 143 0.0 0.0 0.00 0.00 0.00 63 1011.6
20260505031029 16 143 0.0 0.0 0.00 0.00 0.00 62 1011.6
20260505030929 16 143 0.0 0.0 0.00 0.00 0.00 62 1011.6
20260505030827 16 143 0.0 0.0 0.00 0.00 0.00 62 1011.6
20260505030729 16 142 0.0 0.0 0.00 0.00 0.00 62 1011.6
20260505030630 16 142 0.0 0.0 0.00 0.00 0.00 62 1011.6
20260505030557 16 139 0.0 0.0 0.00 0.00 0.00 62 1011.6
20260505030434 16 141 0.0 0.0 0.00 0.00 0.00 62 1011.6
20260505030334 16 140 0.0 0.0 0.00 0.00 0.00 62 1011.6
20260505030235 16 140 0.0 0.0 0.00 0.00 0.00 62 1011.6
20260505030136 16 140 0.0 0.0 0.00 0.00 0.00 62 1011.6
20260505030058 16 140 0.0 0.0 0.00 0.00 0.00 62 1011.6
20260505025937 16 140 0.0 0.0 0.00 0.00 0.00 62 1011.6
20260505025843 16 140 0.0 0.0 0.00 0.00 0.00 61 1011.7
20260505025724 16 140 0.0 0.0 0.00 0.00 0.00 61 1011.7
20260505025626 16 140 0.0 0.0 0.00 0.00 0.00 61 1011.7
20260505025531 16 138 0.0 0.0 0.00 0.00 0.00 61 1011.7
20260505025449 16 138 0.0 0.0 0.00 0.00 0.00 61 1011.7
20260505025329 16 138 0.0 0.0 0.00 0.00 0.00 60 1011.7
20260505025229 16 138 0.0 0.0 0.00 0.00 0.00 60 1011.7
20260505025133 16 137 0.0 0.0 0.00 0.00 0.00 60 1011.7
20260505025035 16 137 0.0 0.0 0.00 0.00 0.00 60 1011.7
20260505024934 16 143 0.0 0.0 0.00 0.00 0.00 60 1011.7
20260505024833 16 143 0.0 0.0 0.00 0.00 0.00 60 1011.7
20260505024737 16 145 0.0 0.0 0.00 0.00 0.00 60 1011.7
20260505024635 16 145 0.0 0.0 0.00 0.00 0.00 60 1011.7
20260505024541 16 142 0.0 0.0 0.00 0.00 0.00 60 1011.7
20260505024502 16 142 1.6 0.0 0.00 0.00 0.00 59 1011.7
20260505024343 17 136 0.0 0.0 0.00 0.00 0.00 59 1011.7
20260505024304 17 131 0.0 0.0 0.00 0.00 0.00 59 1011.7
20260505024145 17 150 1.6 0.0 0.00 0.00 0.00 59 1011.7
20260505024043 17 153 1.6 0.0 0.00 0.00 0.00 59 1011.7
20260505023944 17 152 1.6 0.0 0.00 0.00 0.00 59 1011.7
20260505023825 17 157 1.6 0.0 0.00 0.00 0.00 58 1011.7
20260505023730 17 163 1.6 0.0 0.00 0.00 0.00 58 1011.7
20260505023635 17 142 1.6 0.0 0.00 0.00 0.00 58 1011.7
20260505023557 17 150 1.6 0.0 0.00 0.00 0.00 58 1011.7
20260505023432 17 149 1.6 0.0 0.00 0.00 0.00 58 1011.7
20260505023334 17 126 1.6 0.0 0.00 0.00 0.00 58 1011.7
20260505023237 17 117 1.6 0.0 0.00 0.00 0.00 58 1011.7
20260505023158 17 143 1.6 0.0 0.00 0.00 0.00 58 1011.7
20260505023039 17 147 1.6 0.0 0.00 0.00 0.00 57 1011.7
20260505022940 17 149 1.6 0.0 0.00 0.00 0.00 57 1011.7
20260505022838 17 141 1.6 0.0 0.00 0.00 0.00 57 1011.8
20260505022740 17 141 1.6 0.0 0.00 0.00 0.00 57 1011.8
20260505022641 17 147 1.6 0.0 0.00 0.00 0.00 57 1011.8
20260505022603 17 149 1.6 0.0 0.00 0.00 0.00 56 1011.8
20260505022439 17 151 1.6 0.0 0.00 0.00 0.00 56 1011.8
20260505022324 17 129 1.6 0.0 0.00 0.00 0.00 56 1011.8
20260505022226 17 140 1.6 0.0 0.00 0.00 0.00 56 1011.8
20260505022126 17 140 1.6 0.0 0.00 0.00 0.00 56 1011.8
20260505022028 17 140 1.6 0.0 0.00 0.00 0.00 56 1011.8
20260505021931 17 140 1.6 0.0 0.00 0.00 0.00 56 1011.8
20260505021830 17 146 1.6 0.0 0.00 0.00 0.00 55 1011.8
20260505021735 17 146 1.6 0.0 0.00 0.00 0.00 55 1011.8
20260505021636 17 147 1.6 0.0 0.00 0.00 0.00 55 1011.8
20260505021541 17 160 1.6 0.0 0.00 0.00 0.00 55 1011.8
20260505021445 17 155 1.6 0.0 0.00 0.00 0.00 55 1011.8
20260505021407 17 172 1.6 0.0 0.00 0.00 0.00 55 1011.8
20260505021244 17 186 1.6 0.0 0.00 0.00 0.00 54 1011.8
20260505021145 17 157 1.6 0.0 0.00 0.00 0.00 54 1011.8
20260505021030 17 151 1.6 0.0 0.00 0.00 0.00 54 1011.8
20260505020930 17 139 1.6 0.0 0.00 0.00 0.00 54 1011.8
20260505020831 17 138 1.6 0.0 0.00 0.00 0.00 54 1011.8
20260505020734 17 149 1.6 0.0 0.00 0.00 0.00 54 1011.8
20260505020633 17 143 1.6 0.0 0.00 0.00 0.00 54 1011.8
20260505020535 17 142 1.6 0.0 0.00 0.00 0.00 54 1011.8
20260505020435 17 142 1.6 0.0 0.00 0.00 0.00 53 1011.8
20260505020337 17 157 1.6 0.0 0.00 0.00 0.00 53 1011.8
20260505020234 17 167 1.6 0.0 0.00 0.00 0.00 53 1011.8
20260505020139 17 110 3.2 0.0 0.00 0.00 0.00 53 1011.8
20260505020040 18 152 3.2 0.0 0.00 0.00 0.00 53 1011.8
20260505020001 18 159 3.2 0.0 0.00 0.00 0.00 53 1011.8
20260505015842 18 127 3.2 0.0 0.00 0.00 0.00 53 1011.6
20260505015803 18 148 3.2 0.0 0.00 0.00 0.00 52 1011.6
20260505015644 18 149 3.2 0.0 0.00 0.00 0.00 52 1011.6
20260505015544 18 148 3.2 0.0 0.00 0.00 0.00 52 1011.6
20260505015422 18 158 4.8 0.0 0.00 0.00 0.00 52 1011.6
20260505015348 18 158 4.8 0.0 0.00 0.00 0.00 52 1011.6
20260505015245 18 156 3.2 0.0 0.00 0.00 0.00 51 1011.6
20260505015128 18 149 3.2 0.0 0.00 0.00 0.00 51 1011.6
20260505015046 18 132 3.2 0.0 0.00 0.00 0.00 51 1011.6
20260505014930 18 149 3.2 0.0 0.00 0.00 0.00 51 1011.6
20260505014851 18 129 3.2 0.0 0.00 0.00 0.00 51 1011.6
20260505014733 18 113 3.2 0.0 0.00 0.00 0.00 51 1011.6
20260505014630 18 155 3.2 0.0 0.00 0.00 0.00 50 1011.6
20260505014535 18 143 3.2 0.0 0.00 0.00 0.00 50 1011.6
20260505014433 18 128 3.2 0.0 0.00 0.00 0.00 50 1011.6
20260505014335 18 145 3.2 0.0 0.00 0.00 0.00 50 1011.6
20260505014237 18 161 4.8 0.0 0.00 0.00 0.00 49 1011.6
20260505014140 18 130 4.8 0.0 0.00 0.00 0.00 49 1011.6
20260505014038 18 172 4.8 0.0 0.00 0.00 0.00 49 1011.6
20260505013937 18 176 4.8 0.0 0.00 0.00 0.00 49 1011.6
20260505013838 18 151 4.8 0.0 0.00 0.00 0.00 49 1011.6
20260505013740 18 141 4.8 0.0 0.00 0.00 0.00 48 1011.6
20260505013639 18 148 4.8 0.0 0.00 0.00 0.00 48 1011.6
20260505013543 18 147 4.8 0.0 0.00 0.00 0.00 48 1011.6
20260505013442 18 136 4.8 0.0 0.00 0.00 0.00 48 1011.6
20260505013346 18 161 4.8 0.0 0.00 0.00 0.00 47 1011.6
20260505013225 18 151 4.8 0.0 0.00 0.00 0.00 47 1011.6
20260505013146 18 175 4.8 0.0 0.00 0.00 0.00 47 1011.6
20260505013043 18 120 3.2 0.0 0.00 0.00 0.00 46 1011.6
20260505012929 18 151 3.2 0.0 0.00 0.00 0.00 46 1011.6
20260505012827 18 121 3.2 0.0 0.00 0.00 0.00 46 1011.2
20260505012729 18 161 3.2 0.0 0.00 0.00 0.00 45 1011.2
20260505012651 18 146 1.6 0.0 0.00 0.00 0.00 45 1011.2
20260505012531 18 160 1.6 0.0 0.00 0.00 0.00 45 1011.2
20260505012448 19 141 1.6 0.0 0.00 0.00 0.00 45 1011.2
20260505012330 19 143 0.0 0.0 0.00 0.00 0.00 44 1011.2
20260505012231 19 152 0.0 0.0 0.00 0.00 0.00 44 1011.2
20260505012136 19 172 0.0 0.0 0.00 0.00 0.00 44 1011.2
20260505012054 19 144 0.0 0.0 0.00 0.00 0.00 44 1011.2
20260505011933 19 145 0.0 0.0 0.00 0.00 0.00 44 1011.2
20260505011833 19 145 0.0 0.0 0.00 0.00 0.00 44 1011.2
20260505011734 19 145 0.0 0.0 0.00 0.00 0.00 44 1011.2
20260505011632 19 146 0.0 0.0 0.00 0.00 0.00 44 1011.2
20260505011555 19 146 0.0 0.0 0.00 0.00 0.00 43 1011.2
20260505011438 19 145 0.0 0.0 0.00 0.00 0.00 43 1011.2
20260505011341 19 145 0.0 0.0 0.00 0.00 0.00 43 1011.1
20260505011241 19 145 0.0 0.0 0.00 0.00 0.00 43 1011.1
20260505011203 19 145 0.0 0.0 0.00 0.00 0.00 43 1011.1
20260505011040 19 145 0.0 0.0 0.00 0.00 0.00 43 1011.1
20260505010940 19 145 0.0 0.0 0.00 0.00 0.00 43 1011.1
20260505010901 19 145 0.0 0.0 0.00 0.00 0.00 43 1011.1
20260505010742 19 145 0.0 0.0 0.00 0.00 0.00 43 1011.1
20260505010624 19 145 0.0 0.0 0.00 0.00 0.00 43 1011.1
20260505010525 19 145 1.6 0.0 0.00 0.00 0.00 43 1011.1
20260505010426 19 145 1.6 0.0 0.00 0.00 0.00 42 1011.1
20260505010348 20 146 1.6 0.0 0.00 0.00 0.00 42 1011.1
20260505010225 20 145 1.6 0.0 0.00 0.00 0.00 42 1011.1
20260505010127 20 146 1.6 0.0 0.00 0.00 0.00 42 1011.1
20260505010032 20 155 1.6 0.0 0.00 0.00 0.00 42 1011.1
20260505005933 20 154 1.6 0.0 0.00 0.00 0.00 42 1011.1
20260505005832 20 155 1.6 0.0 0.00 0.00 0.00 42 1011.0
20260505005734 20 155 1.6 0.0 0.00 0.00 0.00 42 1011.0
20260505005636 20 143 0.0 0.0 0.00 0.00 0.00 42 1011.0
20260505005538 20 144 0.0 0.0 0.00 0.00 0.00 42 1011.0
20260505005438 20 137 0.0 0.0 0.00 0.00 0.00 42 1011.0
20260505005343 20 153 0.0 0.0 0.00 0.00 0.00 42 1011.0
20260505005241 20 150 0.0 0.0 0.00 0.00 0.00 42 1011.0
20260505005142 20 150 0.0 0.0 0.00 0.00 0.00 41 1011.0
20260505005040 20 150 0.0 0.0 0.00 0.00 0.00 41 1011.0
20260505004944 20 150 0.0 0.0 0.00 0.00 0.00 41 1011.0
20260505004826 20 154 0.0 0.0 0.00 0.00 0.00 41 1011.0
20260505004731 20 154 0.0 0.0 0.00 0.00 0.00 41 1011.0
20260505004629 20 154 0.0 0.0 0.00 0.00 0.00 41 1011.0
20260505004551 20 155 0.0 0.0 0.00 0.00 0.00 41 1011.0
20260505004427 20 155 0.0 0.0 0.00 0.00 0.00 41 1011.0
20260505004329 20 155 0.0 0.0 0.00 0.00 0.00 41 1010.6
20260505004228 20 155 0.0 0.0 0.00 0.00 0.00 41 1010.6
20260505004131 20 155 0.0 0.0 0.00 0.00 0.00 41 1010.6
20260505004032 20 155 0.0 0.0 0.00 0.00 0.00 40 1010.6
20260505003932 20 155 0.0 0.0 0.00 0.00 0.00 40 1010.6
20260505003834 20 155 0.0 0.0 0.00 0.00 0.00 41 1010.6
20260505003759 20 155 0.0 0.0 0.00 0.00 0.00 40 1010.6
20260505003636 20 186 0.0 0.0 0.00 0.00 0.00 40 1010.6
20260505003541 20 186 0.0 0.0 0.00 0.00 0.00 40 1010.6
20260505003501 20 173 0.0 0.0 0.00 0.00 0.00 40 1010.6
20260505003326 20 173 0.0 0.0 0.00 0.00 0.00 40 1010.6
20260505003228 20 175 1.6 0.0 0.00 0.00 0.00 40 1010.6
20260505003129 20 176 1.6 0.0 0.00 0.00 0.00 40 1010.6
20260505003029 20 176 1.6 0.0 0.00 0.00 0.00 40 1010.6
20260505002930 20 153 1.6 0.0 0.00 0.00 0.00 40 1010.6
20260505002828 20 180 1.6 0.0 0.00 0.00 0.00 40 1010.6
20260505002749 20 178 1.6 0.0 0.00 0.00 0.00 40 1010.6
20260505002637 20 178 1.6 0.0 0.00 0.00 0.00 40 1010.6
20260505002537 20 160 1.6 0.0 0.00 0.00 0.00 40 1010.6
20260505002433 20 166 1.6 0.0 0.00 0.00 0.00 39 1010.6
20260505002336 20 167 1.6 0.0 0.00 0.00 0.00 39 1010.6
20260505002237 20 166 1.6 0.0 0.00 0.00 0.00 39 1010.6
20260505002159 20 172 1.6 0.0 0.00 0.00 0.00 39 1010.6
20260505002023 20 186 1.6 0.0 0.00 0.00 0.00 39 1010.6
20260505001927 20 190 1.6 0.0 0.00 0.00 0.00 39 1010.6
20260505001828 20 184 1.6 0.0 0.00 0.00 0.00 39 1010.6
20260505001733 21 190 1.6 0.0 0.00 0.00 0.00 39 1010.6
20260505001633 21 174 1.6 0.0 0.00 0.00 0.00 39 1010.6
20260505001536 21 157 1.6 0.0 0.00 0.00 0.00 39 1010.6
20260505001436 21 177 1.6 0.0 0.00 0.00 0.00 39 1010.6
20260505001342 21 170 1.6 0.0 0.00 0.00 0.00 39 1010.5
20260505001239 21 170 1.6 0.0 0.00 0.00 0.00 39 1010.5
20260505001140 21 170 3.2 0.0 0.00 0.00 0.00 38 1010.5
20260505001042 21 181 3.2 0.0 0.00 0.00 0.00 38 1010.5
20260505000943 21 148 3.2 0.0 0.00 0.00 0.00 39 1010.5
20260505000841 21 161 3.2 0.0 0.00 0.00 0.00 38 1010.5
20260505000747 21 161 3.2 0.0 0.00 0.00 0.00 38 1010.5
20260505000624 21 190 3.2 0.0 0.00 0.00 0.00 38 1010.5
20260505000526 21 190 3.2 0.0 0.00 0.00 0.00 38 1010.5
20260505000428 21 164 3.2 0.0 0.00 0.00 0.00 38 1010.5
20260505000327 21 151 3.2 0.0 0.00 0.00 0.00 38 1010.5
20260505000246 21 180 3.2 0.0 0.00 0.00 0.00 38 1010.5
20260505000127 21 182 1.6 0.0 0.00 0.00 0.00 38 1010.5
20260505000033 21 174 1.6 0.0 0.00 0.00 0.00 38 1010.5
20260504235934 21 174 3.2 0.0 0.00 0.00 0.00 38 1010.5
20260504235832 21 176 3.2 0.0 0.00 0.00 0.00 38 1010.2
20260504235733 21 182 4.8 0.0 0.00 0.00 0.00 38 1010.2
20260504235632 21 192 4.8 0.0 0.00 0.00 0.00 38 1010.2
20260504235535 21 224 4.8 0.0 0.00 0.00 0.00 38 1010.2
20260504235439 21 229 4.8 0.0 0.00 0.00 0.00 38 1010.2
20260504235339 21 175 4.8 0.0 0.00 0.00 0.00 38 1010.2
20260504235238 21 174 4.8 0.0 0.00 0.00 0.00 37 1010.2
20260504235139 21 174 4.8 0.0 0.00 0.00 0.00 37 1010.2
20260504235100 21 172 4.8 0.0 0.00 0.00 0.00 37 1010.2
20260504234934 21 200 4.8 0.0 0.00 0.00 0.00 37 1010.2
20260504234832 21 199 4.8 0.0 0.00 0.00 0.00 37 1010.2
20260504234738 21 192 3.2 0.0 0.00 0.00 0.00 37 1010.2
20260504234656 21 172 3.2 0.0 0.00 0.00 0.00 37 1010.2
20260504234537 21 176 3.2 0.0 0.00 0.00 0.00 37 1010.2
20260504234436 21 166 3.2 0.0 0.00 0.00 0.00 37 1010.2
20260504234359 21 168 3.2 0.0 0.00 0.00 0.00 37 1010.1
20260504234255 21 253 3.2 0.0 0.00 0.00 0.00 37 1010.1
20260504234137 21 158 1.6 0.0 0.00 0.00 0.00 37 1010.1
20260504234103 21 149 3.2 0.0 0.00 0.00 0.00 37 1010.1
20260504233926 21 141 3.2 0.0 0.00 0.00 0.00 37 1010.1
20260504233826 21 135 3.2 0.0 0.00 0.00 0.00 36 1010.1
20260504233727 21 197 3.2 0.0 0.00 0.00 0.00 36 1010.1
20260504233628 21 193 3.2 0.0 0.00 0.00 0.00 36 1010.1
20260504233530 21 160 3.2 0.0 0.00 0.00 0.00 36 1010.1
20260504233427 21 168 3.2 0.0 0.00 0.00 0.00 36 1010.1
20260504233328 21 180 3.2 0.0 0.00 0.00 0.00 36 1010.1
20260504233234 21 169 3.2 0.0 0.00 0.00 0.00 36 1010.1
20260504233135 21 180 3.2 0.0 0.00 0.00 0.00 36 1010.1
20260504233033 22 230 3.2 0.0 0.00 0.00 0.00 36 1010.1
20260504232934 21 203 3.2 0.0 0.00 0.00 0.00 36 1010.1
20260504232835 22 195 3.2 0.0 0.00 0.00 0.00 36 1010.1
20260504232736 22 180 3.2 0.0 0.00 0.00 0.00 36 1010.1
20260504232639 22 189 1.6 0.0 0.00 0.00 0.00 36 1010.1
20260504232540 22 206 1.6 0.0 0.00 0.00 0.00 36 1010.1
20260504232439 22 186 3.2 0.0 0.00 0.00 0.00 36 1010.1
20260504232358 22 186 3.2 0.0 0.00 0.00 0.00 36 1010.1
20260504232304 22 162 3.2 0.0 0.00 0.00 0.00 35 1010.1
20260504232143 22 152 3.2 0.0 0.00 0.00 0.00 35 1010.1
20260504232025 22 176 3.2 0.0 0.00 0.00 0.00 35 1010.1
20260504231930 22 160 4.8 0.0 0.00 0.00 0.00 35 1010.1
20260504231828 22 184 4.8 0.0 0.00 0.00 0.00 35 1010.1
20260504231754 22 184 4.8 0.0 0.00 0.00 0.00 35 1010.1
20260504231630 22 175 4.8 0.0 0.00 0.00 0.00 35 1010.1
20260504231553 22 229 4.8 0.0 0.00 0.00 0.00 35 1010.1
20260504231430 22 261 6.4 0.0 0.00 0.00 0.00 35 1010.1
20260504231330 22 191 6.4 0.0 0.00 0.00 0.00 35 1010.1
20260504231231 22 172 6.4 0.0 0.00 0.00 0.00 35 1010.1
20260504231137 22 198 6.4 0.0 0.00 0.00 0.00 35 1010.1
20260504231036 22 183 6.4 0.0 0.00 0.00 0.00 35 1010.1
20260504230939 22 211 6.4 0.0 0.00 0.00 0.00 35 1010.1
20260504230901 22 226 8.0 0.0 0.00 0.00 0.00 35 1010.1
20260504230742 22 207 8.0 0.0 0.00 0.00 0.00 35 1010.1
20260504230623 22 188 6.4 0.0 0.00 0.00 0.00 35 1010.1
20260504230530 22 195 8.0 0.0 0.00 0.00 0.00 35 1010.1
20260504230426 22 176 6.4 0.0 0.00 0.00 0.00 35 1010.1
20260504230328 22 213 6.4 0.0 0.00 0.00 0.00 35 1010.1
20260504230227 22 209 8.0 0.0 0.00 0.00 0.00 35 1010.1
20260504230128 22 202 6.4 0.0 0.00 0.00 0.00 35 1010.1
20260504230030 22 178 6.4 0.0 0.00 0.00 0.00 34 1010.1
20260504225931 22 158 6.4 0.0 0.00 0.00 0.00 34 1010.1
20260504225833 22 195 4.8 0.0 0.00 0.00 0.00 34 1010.0
20260504225736 22 230 4.8 0.0 0.00 0.00 0.00 34 1010.0
20260504225701 22 178 4.8 0.0 0.00 0.00 0.00 34 1010.0
20260504225542 22 138 6.4 0.0 0.00 0.00 0.00 34 1010.0
20260504225441 22 170 4.8 0.0 0.00 0.00 0.00 34 1010.0
20260504225342 22 193 4.8 0.0 0.00 0.00 0.00 34 1010.0
20260504225239 22 180 4.8 0.0 0.00 0.00 0.00 34 1010.0
20260504225144 22 109 4.8 0.0 0.00 0.00 0.00 34 1010.0
20260504225105 22 192 4.8 0.0 0.00 0.00 0.00 34 1010.0
20260504224944 22 130 4.8 0.0 0.00 0.00 0.00 34 1010.0
20260504224825 22 209 4.8 0.0 0.00 0.00 0.00 34 1010.0
20260504224747 22 163 4.8 0.0 0.00 0.00 0.00 34 1010.0
20260504224624 22 138 3.2 0.0 0.00 0.00 0.00 33 1010.0
20260504224546 22 163 3.2 0.0 0.00 0.00 0.00 34 1010.0
20260504224429 22 153 3.2 0.0 0.00 0.00 0.00 33 1010.0
20260504224350 22 187 3.2 0.0 0.00 0.00 0.00 34 1010.2
20260504224228 22 222 3.2 0.0 0.00 0.00 0.00 34 1010.2
20260504224133 22 180 4.8 0.0 0.00 0.00 0.00 34 1010.2
20260504224035 22 144 4.8 0.0 0.00 0.00 0.00 33 1010.2
20260504223959 22 180 4.8 0.0 0.00 0.00 0.00 33 1010.2
20260504223835 22 226 4.8 0.0 0.00 0.00 0.00 34 1010.2
20260504223741 22 170 4.8 0.0 0.00 0.00 0.00 34 1010.2
20260504223638 22 205 4.8 0.0 0.00 0.00 0.00 34 1010.2
20260504223541 22 174 6.4 0.0 0.00 0.00 0.00 33 1010.2
20260504223438 22 222 6.4 0.0 0.00 0.00 0.00 33 1010.2
20260504223340 22 247 8.0 0.0 0.00 0.00 0.00 33 1010.2
20260504223221 22 181 6.4 0.0 0.00 0.00 0.00 33 1010.2
20260504223129 22 236 6.4 0.0 0.00 0.00 0.00 33 1010.2
20260504223028 22 221 6.4 0.0 0.00 0.00 0.00 33 1010.2
20260504222928 22 239 6.4 0.0 0.00 0.00 0.00 33 1010.2
20260504222826 22 193 4.8 0.0 0.00 0.00 0.00 33 1010.2
20260504222728 22 223 4.8 0.0 0.00 0.00 0.00 33 1010.2
20260504222629 22 183 4.8 0.0 0.00 0.00 0.00 33 1010.2
20260504222534 22 165 4.8 0.0 0.00 0.00 0.00 33 1010.2
20260504222434 22 178 3.2 0.0 0.00 0.00 0.00 33 1010.2
20260504222334 22 196 3.2 0.0 0.00 0.00 0.00 33 1010.2
20260504222257 22 115 3.2 0.0 0.00 0.00 0.00 33 1010.2
20260504222137 22 217 3.2 0.0 0.00 0.00 0.00 33 1010.2
20260504222036 22 262 3.2 0.0 0.00 0.00 0.00 33 1010.2
20260504221956 22 197 4.8 0.0 0.00 0.00 0.00 33 1010.2
20260504221854 22 155 4.8 0.0 0.00 0.00 0.00 33 1010.2
20260504221734 22 222 4.8 0.0 0.00 0.00 0.00 33 1010.2
20260504221635 22 207 4.8 0.0 0.00 0.00 0.00 33 1010.2
20260504221536 22 233 4.8 0.0 0.00 0.00 0.00 33 1010.2
20260504221436 22 236 6.4 0.0 0.00 0.00 0.00 33 1010.2
20260504221337 22 253 6.4 0.0 0.00 0.00 0.00 33 1010.4
20260504221235 22 323 8.0 0.0 0.00 0.00 0.00 33 1010.4
20260504221136 22 166 9.7 0.0 0.00 0.00 0.00 33 1010.4
20260504221055 22 213 8.0 0.0 0.00 0.00 0.00 32 1010.4
20260504220939 22 179 8.0 0.0 0.00 0.00 0.00 33 1010.4
20260504220837 22 180 8.0 0.0 0.00 0.00 0.00 33 1010.4
20260504220721 22 212 8.0 0.0 0.00 0.00 0.00 33 1010.4
20260504220647 22 184 8.0 0.0 0.00 0.00 0.00 33 1010.4
20260504220602 22 184 8.0 0.0 0.00 0.00 0.00 32 1010.4
20260504220426 22 208 8.0 0.0 0.00 0.00 0.00 32 1010.4
20260504220348 22 260 6.4 0.0 0.00 0.00 0.00 32 1010.4
20260504220229 23 178 4.8 0.0 0.00 0.00 0.00 32 1010.4
20260504220129 23 182 3.2 0.0 0.00 0.00 0.00 33 1010.4
20260504220032 23 163 4.8 0.0 0.00 0.00 0.00 33 1010.4
20260504215932 23 157 4.8 0.0 0.00 0.00 0.00 33 1010.4
20260504215830 23 178 4.8 0.0 0.00 0.00 0.00 33 1010.5
20260504215732 23 266 4.8 0.0 0.00 0.00 0.00 33 1010.5
20260504215633 22 190 6.4 0.0 0.00 0.00 0.00 33 1010.5
20260504215535 22 190 6.4 0.0 0.00 0.00 0.00 33 1010.5
20260504215434 22 271 6.4 0.0 0.00 0.00 0.00 33 1010.5
20260504215340 22 211 8.0 0.0 0.00 0.00 0.00 33 1010.5
20260504215238 22 268 8.0 0.0 0.00 0.00 0.00 33 1010.5
20260504215143 22 188 9.7 0.0 0.00 0.00 0.00 33 1010.5
20260504215029 22 205 8.0 0.0 0.00 0.00 0.00 33 1010.5
20260504214933 22 215 8.0 0.0 0.00 0.00 0.00 32 1010.5
20260504214834 22 241 8.0 0.0 0.00 0.00 0.00 32 1010.5
20260504214755 22 209 8.0 0.0 0.00 0.00 0.00 32 1010.5
20260504214632 22 179 8.0 0.0 0.00 0.00 0.00 33 1010.5
20260504214533 22 185 8.0 0.0 0.00 0.00 0.00 32 1010.5
20260504214435 22 180 8.0 0.0 0.00 0.00 0.00 32 1010.5
20260504214341 22 180 6.4 0.0 0.00 0.00 0.00 32 1010.5
20260504214241 23 175 6.4 0.0 0.00 0.00 0.00 32 1010.5
20260504214144 23 167 6.4 0.0 0.00 0.00 0.00 33 1010.5
20260504214106 22 192 8.0 0.0 0.00 0.00 0.00 33 1010.5
20260504213944 22 251 8.0 0.0 0.00 0.00 0.00 32 1010.5
20260504213843 22 230 8.0 0.0 0.00 0.00 0.00 32 1010.5
20260504213724 22 195 6.4 0.0 0.00 0.00 0.00 32 1010.5
20260504213649 22 178 6.4 0.0 0.00 0.00 0.00 32 1010.5
20260504213550 23 188 4.8 0.0 0.00 0.00 0.00 32 1010.5
20260504213449 23 259 4.8 0.0 0.00 0.00 0.00 32 1010.5
20260504213329 23 184 4.8 0.0 0.00 0.00 0.00 32 1010.5
20260504213247 23 161 4.8 0.0 0.00 0.00 0.00 32 1010.5
20260504213147 23 203 4.8 0.0 0.00 0.00 0.00 32 1010.5
20260504213044 23 190 4.8 0.0 0.00 0.00 0.00 32 1010.5
20260504212945 23 315 4.8 0.0 0.00 0.00 0.00 32 1010.5
20260504212844 23 189 4.8 0.0 0.00 0.00 0.00 32 1010.6
20260504212732 23 216 4.8 0.0 0.00 0.00 0.00 32 1010.6
20260504212629 23 249 4.8 0.0 0.00 0.00 0.00 32 1010.6
20260504212531 23 205 6.4 0.0 0.00 0.00 0.00 32 1010.6
20260504212448 23 186 6.4 0.0 0.00 0.00 0.00 32 1010.6
20260504212328 23 290 6.4 0.0 0.00 0.00 0.00 32 1010.6
20260504212248 23 170 4.8 0.0 0.00 0.00 0.00 32 1010.6
20260504212132 23 12 4.8 0.0 0.00 0.00 0.00 32 1010.6
20260504212033 23 236 4.8 0.0 0.00 0.00 0.00 33 1010.6
20260504211934 23 253 4.8 0.0 0.00 0.00 0.00 32 1010.6
20260504211834 23 155 4.8 0.0 0.00 0.00 0.00 33 1010.6
20260504211735 23 210 4.8 0.0 0.00 0.00 0.00 32 1010.6
20260504211656 23 196 4.8 0.0 0.00 0.00 0.00 32 1010.6
20260504211541 23 199 4.8 0.0 0.00 0.00 0.00 32 1010.6
20260504211441 23 201 4.8 0.0 0.00 0.00 0.00 31 1010.6
20260504211403 23 277 4.8 0.0 0.00 0.00 0.00 32 1010.5
20260504211224 23 234 6.4 0.0 0.00 0.00 0.00 32 1010.5
20260504211126 23 329 6.4 0.0 0.00 0.00 0.00 32 1010.5
20260504211027 23 251 6.4 0.0 0.00 0.00 0.00 32 1010.5
20260504210951 23 163 8.0 0.0 0.00 0.00 0.00 32 1010.5
20260504210850 23 205 6.4 0.0 0.00 0.00 0.00 32 1010.5
20260504210733 22 172 6.4 0.0 0.00 0.00 0.00 32 1010.5
20260504210634 22 157 6.4 0.0 0.00 0.00 0.00 32 1010.5
20260504210559 23 271 4.8 0.0 0.00 0.00 0.00 32 1010.5
20260504210500 23 243 4.8 0.0 0.00 0.00 0.00 32 1010.5
20260504210340 23 276 4.8 0.0 0.00 0.00 0.00 32 1010.5
20260504210301 23 143 4.8 0.0 0.00 0.00 0.00 32 1010.5
20260504210141 23 176 4.8 0.0 0.00 0.00 0.00 31 1010.5
20260504210043 23 305 4.8 0.0 0.00 0.00 0.00 31 1010.5
20260504210003 23 322 3.2 0.0 0.00 0.00 0.00 31 1010.5
20260504205837 23 282 3.2 0.0 0.00 0.00 0.00 31 1010.5
20260504205742 23 306 3.2 0.0 0.00 0.00 0.00 31 1010.5
20260504205624 23 292 3.2 0.0 0.00 0.00 0.00 32 1010.5
20260504205529 23 296 4.8 0.0 0.00 0.00 0.00 32 1010.5
20260504205445 23 192 3.2 0.0 0.00 0.00 0.00 32 1010.5
20260504205327 23 195 4.8 0.0 0.00 0.00 0.00 32 1010.5
20260504205228 23 200 4.8 0.0 0.00 0.00 0.00 32 1010.5
20260504205129 23 197 4.8 0.0 0.00 0.00 0.00 32 1010.5
20260504205032 23 249 4.8 0.0 0.00 0.00 0.00 32 1010.5
20260504204933 22 164 4.8 0.0 0.00 0.00 0.00 32 1010.5
20260504204858 22 135 6.4 0.0 0.00 0.00 0.00 32 1010.5
20260504204739 22 192 6.4 0.0 0.00 0.00 0.00 32 1010.5
20260504204640 22 159 6.4 0.0 0.00 0.00 0.00 31 1010.5
20260504204542 22 170 6.4 0.0 0.00 0.00 0.00 32 1010.5
20260504204439 22 247 6.4 0.0 0.00 0.00 0.00 31 1010.5
20260504204324 22 263 6.4 0.0 0.00 0.00 0.00 31 1010.5
20260504204225 23 226 6.4 0.0 0.00 0.00 0.00 31 1010.5
20260504204127 23 209 4.8 0.0 0.00 0.00 0.00 31 1010.5
20260504204026 23 206 4.8 0.0 0.00 0.00 0.00 31 1010.5
20260504203927 23 246 4.8 0.0 0.00 0.00 0.00 31 1010.5
20260504203826 23 194 3.2 0.0 0.00 0.00 0.00 31 1010.5
20260504203735 23 241 3.2 0.0 0.00 0.00 0.00 32 1010.5
20260504203655 23 244 3.2 0.0 0.00 0.00 0.00 31 1010.5
20260504203556 23 144 3.2 0.0 0.00 0.00 0.00 31 1010.5
20260504203432 23 171 3.2 0.0 0.00 0.00 0.00 31 1010.5
20260504203333 23 127 3.2 0.0 0.00 0.00 0.00 31 1010.5
20260504203235 23 163 3.2 0.0 0.00 0.00 0.00 31 1010.5
20260504203138 23 197 4.8 0.0 0.00 0.00 0.00 31 1010.5
20260504203044 23 245 4.8 0.0 0.00 0.00 0.00 31 1010.5
20260504203004 23 165 4.8 0.0 0.00 0.00 0.00 30 1010.5
20260504202824 23 184 4.8 0.0 0.00 0.00 0.00 30 1010.5
20260504202726 23 195 4.8 0.0 0.00 0.00 0.00 31 1010.5
20260504202627 23 172 4.8 0.0 0.00 0.00 0.00 31 1010.5
20260504202528 23 169 4.8 0.0 0.00 0.00 0.00 32 1010.5
20260504202425 23 169 4.8 0.0 0.00 0.00 0.00 32 1010.5
20260504202331 23 173 6.4 0.0 0.00 0.00 0.00 32 1010.5
20260504202248 23 192 6.4 0.0 0.00 0.00 0.00 32 1010.5
20260504202131 23 187 6.4 0.0 0.00 0.00 0.00 31 1010.5
20260504202030 23 219 6.4 0.0 0.00 0.00 0.00 32 1010.5
20260504201932 23 160 6.4 0.0 0.00 0.00 0.00 32 1010.5
20260504201831 22 216 6.4 0.0 0.00 0.00 0.00 31 1010.5
20260504201731 22 182 8.0 0.0 0.00 0.00 0.00 31 1010.5
20260504201636 23 217 8.0 0.0 0.00 0.00 0.00 32 1010.5
20260504201559 22 181 8.0 0.0 0.00 0.00 0.00 32 1010.5
20260504201434 22 224 8.0 0.0 0.00 0.00 0.00 32 1010.5
20260504201335 22 240 8.0 0.0 0.00 0.00 0.00 32 1010.6
20260504201253 22 138 8.0 0.0 0.00 0.00 0.00 32 1010.6
20260504201132 22 178 8.0 0.0 0.00 0.00 0.00 32 1010.6
20260504201036 22 163 6.4 0.0 0.00 0.00 0.00 32 1010.6
20260504200955 22 240 6.4 0.0 0.00 0.00 0.00 32 1010.6
20260504200836 22 210 6.4 0.0 0.00 0.00 0.00 31 1010.6
20260504200738 22 195 6.4 0.0 0.00 0.00 0.00 31 1010.6
20260504200642 22 242 4.8 0.0 0.00 0.00 0.00 31 1010.6
20260504200604 22 178 4.8 0.0 0.00 0.00 0.00 31 1010.6
20260504200443 22 280 4.8 0.0 0.00 0.00 0.00 31 1010.6
20260504200325 22 170 6.4 0.0 0.00 0.00 0.00 31 1010.6
20260504200225 22 219 6.4 0.0 0.00 0.00 0.00 31 1010.6
20260504200131 22 190 8.0 0.0 0.00 0.00 0.00 31 1010.6
20260504200052 22 187 8.0 0.0 0.00 0.00 0.00 31 1010.6
20260504195932 22 197 8.0 0.0 0.00 0.00 0.00 31 1010.6
20260504195830 22 181 8.0 0.0 0.00 0.00 0.00 31 1010.9
20260504195751 22 168 6.4 0.0 0.00 0.00 0.00 32 1010.9
20260504195628 22 184 8.0 0.0 0.00 0.00 0.00 31 1010.9
20260504195531 22 164 6.4 0.0 0.00 0.00 0.00 31 1010.9
20260504195435 22 145 6.4 0.0 0.00 0.00 0.00 31 1010.9
20260504195358 22 171 6.4 0.0 0.00 0.00 0.00 31 1010.9
20260504195239 22 272 6.4 0.0 0.00 0.00 0.00 31 1010.9
20260504195142 22 173 6.4 0.0 0.00 0.00 0.00 32 1010.9
20260504195041 22 178 6.4 0.0 0.00 0.00 0.00 31 1010.9